Time,TemperatureF,DewpointF,PressureIn,WindDirection,WindDirectionDegrees,WindSpeedMPH,WindSpeedGustMPH,Humidity,HourlyPrecipIn,Conditions,Clouds,dailyrainin,SoftwareType,DateUTC
2013-04-04 00:02:00,59.3,54.8,30.08,West,279,0.0,0.0,85,0.00,,,0.00,Wunderground v.1.15,2013-04-04 07:02:00,
2013-04-04 00:04:00,59.3,54.8,30.08,West,279,0.0,0.0,85,0.00,,,0.00,Wunderground v.1.15,2013-04-04 07:04:00,
2013-04-04 00:06:00,59.3,54.8,30.08,West,279,0.0,0.0,85,0.00,,,0.00,Wunderground v.1.15,2013-04-04 07:06:00,
2013-04-04 00:10:00,59.3,54.8,30.08,West,279,0.0,0.0,85,0.00,,,0.00,Wunderground v.1.15,2013-04-04 07:10:00,
2013-04-04 00:12:00,59.3,54.8,30.08,West,279,0.0,0.0,85,0.00,,,0.00,Wunderground v.1.15,2013-04-04 07:12:00,
2013-04-04 00:14:00,59.3,54.8,30.07,West,279,0.0,0.0,85,0.00,,,0.00,Wunderground v.1.15,2013-04-04 07:14:00,
2013-04-04 00:18:00,59.3,54.8,30.07,West,279,0.0,0.0,85,0.00,,,0.00,Wunderground v.1.15,2013-04-04 07:18:00,
2013-04-04 00:24:00,59.4,54.9,30.07,West,279,0.0,0.0,85,0.00,,,0.00,Wunderground v.1.15,2013-04-04 07:24:00,
2013-04-04 00:30:00,59.3,54.8,30.07,West,279,0.0,0.0,85,0.00,,,0.00,Wunderground v.1.15,2013-04-04 07:30:00,
2013-04-04 00:32:00,59.3,54.8,30.07,West,279,0.0,0.0,85,0.00,,,0.00,Wunderground v.1.15,2013-04-04 07:32:00,
2013-04-04 00:36:00,59.3,54.8,30.07,West,279,0.0,0.0,85,0.00,,,0.00,Wunderground v.1.15,2013-04-04 07:36:00,
2013-04-04 00:40:00,59.3,54.8,30.07,West,279,0.0,0.0,85,0.00,,,0.00,Wunderground v.1.15,2013-04-04 07:40:00,
2013-04-04 00:46:00,59.3,54.8,30.07,West,279,0.0,0.0,85,0.00,,,0.00,Wunderground v.1.15,2013-04-04 07:46:00,
2013-04-04 00:52:00,59.3,54.8,30.07,West,279,0.0,0.0,85,0.00,,,0.00,Wunderground v.1.15,2013-04-04 07:52:00,
2013-04-04 00:54:00,59.4,54.9,30.07,WNW,282,1.0,2.0,85,0.00,,,0.00,Wunderground v.1.15,2013-04-04 07:54:00,
2013-04-04 00:56:00,59.4,54.9,30.07,WNW,282,1.0,2.0,85,0.00,,,0.00,Wunderground v.1.15,2013-04-04 07:56:00,
2013-04-04 00:58:00,59.4,54.9,30.07,WNW,282,1.0,2.0,85,0.00,,,0.00,Wunderground v.1.15,2013-04-04 07:58:00,
2013-04-04 01:00:00,59.4,54.9,30.07,WNW,282,1.0,1.0,85,0.00,,,0.00,Wunderground v.1.15,2013-04-04 08:00:00,
2013-04-04 01:04:00,59.4,54.9,30.07,WNW,282,0.0,1.0,85,0.00,,,0.00,Wunderground v.1.15,2013-04-04 08:04:00,
2013-04-04 01:05:00,59.4,54.9,30.07,WNW,293,0.0,-999.0,85,0.00,,,0.00,Wunderground v.1.15,2013-04-04 08:05:00,
2013-04-04 01:06:00,59.4,54.9,30.07,WNW,282,0.0,1.0,85,0.00,,,0.00,Wunderground v.1.15,2013-04-04 08:06:00,
2013-04-04 01:08:00,59.4,54.9,30.07,WNW,282,0.0,1.0,85,0.00,,,0.00,Wunderground v.1.15,2013-04-04 08:08:00,
2013-04-04 01:10:00,59.4,54.9,30.07,WNW,293,0.0,-999.0,85,0.00,,,0.00,Wunderground v.1.15,2013-04-04 08:10:00,
2013-04-04 01:14:00,59.5,55.0,30.07,WNW,282,0.0,0.0,85,0.00,,,0.00,Wunderground v.1.15,2013-04-04 08:14:00,
2013-04-04 01:15:00,59.5,55.0,30.06,WNW,293,0.0,-999.0,85,0.00,,,0.00,Wunderground v.1.15,2013-04-04 08:15:00,
2013-04-04 01:18:00,59.5,55.0,30.06,WNW,282,0.0,0.0,85,0.00,,,0.00,Wunderground v.1.15,2013-04-04 08:18:00,
2013-04-04 01:20:00,59.6,55.1,30.07,WNW,282,0.0,0.0,85,0.00,,,0.00,Wunderground v.1.15,2013-04-04 08:20:00,
2013-04-04 01:25:00,59.7,55.2,30.07,WNW,293,0.0,-999.0,85,0.00,,,0.00,Wunderground v.1.15,2013-04-04 08:25:00,
2013-04-04 01:26:00,59.6,55.1,30.07,WNW,282,0.0,0.0,85,0.00,,,0.00,Wunderground v.1.15,2013-04-04 08:26:00,
2013-04-04 01:28:00,59.6,55.1,30.07,WNW,282,0.0,0.0,85,0.00,,,0.00,Wunderground v.1.15,2013-04-04 08:28:00,
2013-04-04 01:30:00,59.7,55.2,30.07,WNW,293,0.0,-999.0,85,0.00,,,0.00,Wunderground v.1.15,2013-04-04 08:30:00,
2013-04-04 01:32:00,59.7,54.9,30.07,WNW,282,0.0,0.0,84,0.00,,,0.00,Wunderground v.1.15,2013-04-04 08:32:00,
2013-04-04 01:35:00,59.8,55.3,30.06,WNW,293,0.0,-999.0,85,0.00,,,0.00,Wunderground v.1.15,2013-04-04 08:35:00,
2013-04-04 01:36:00,59.7,55.2,30.06,WNW,282,0.0,0.0,85,0.00,,,0.00,Wunderground v.1.15,2013-04-04 08:36:00,
2013-04-04 01:38:00,59.8,55.3,30.06,WNW,282,0.0,0.0,85,0.00,,,0.00,Wunderground v.1.15,2013-04-04 08:38:00,
2013-04-04 01:40:00,59.8,55.3,30.06,WNW,293,0.0,-999.0,85,0.00,,,0.00,Wunderground v.1.15,2013-04-04 08:40:00,
2013-04-04 01:42:00,59.8,55.0,30.06,WNW,282,0.0,1.0,84,0.00,,,0.00,Wunderground v.1.15,2013-04-04 08:42:00,
2013-04-04 01:44:00,59.8,55.3,30.07,WNW,282,0.0,1.0,85,0.00,,,0.00,Wunderground v.1.15,2013-04-04 08:44:00,
2013-04-04 01:45:00,59.8,55.0,30.07,WNW,293,0.0,-999.0,84,0.00,,,0.00,Wunderground v.1.15,2013-04-04 08:45:00,
2013-04-04 01:46:00,59.8,55.0,30.07,WNW,282,0.0,1.0,84,0.00,,,0.00,Wunderground v.1.15,2013-04-04 08:46:00,
2013-04-04 01:48:00,59.8,55.0,30.07,WNW,282,0.0,1.0,84,0.00,,,0.00,Wunderground v.1.15,2013-04-04 08:48:00,
2013-04-04 01:50:00,59.8,55.0,30.07,WNW,293,0.0,-999.0,84,0.00,,,0.00,Wunderground v.1.15,2013-04-04 08:50:00,
2013-04-04 01:52:00,59.8,55.0,30.06,WNW,282,0.0,1.0,84,0.00,,,0.00,Wunderground v.1.15,2013-04-04 08:52:00,
2013-04-04 01:54:00,59.7,54.9,30.06,WNW,282,0.0,1.0,84,0.00,,,0.00,Wunderground v.1.15,2013-04-04 08:54:00,
2013-04-04 01:55:00,59.8,55.0,30.07,WNW,293,0.0,-999.0,84,0.00,,,0.00,Wunderground v.1.15,2013-04-04 08:55:00,
2013-04-04 01:58:00,59.8,55.0,30.07,WNW,282,0.0,1.0,84,0.00,,,0.00,Wunderground v.1.15,2013-04-04 08:58:00,
2013-04-04 02:00:00,59.8,55.0,30.07,WNW,282,0.0,0.0,84,0.00,,,0.00,Wunderground v.1.15,2013-04-04 09:00:00,
2013-04-04 02:04:00,59.8,55.3,30.07,WNW,282,0.0,0.0,85,0.00,,,0.00,Wunderground v.1.15,2013-04-04 09:04:00,
2013-04-04 02:05:00,59.8,55.3,30.07,N/A,-737280,0.0,-999.0,85,0.00,,,0.00,Wunderground v.1.15,2013-04-04 09:05:00,
2013-04-04 02:06:00,59.8,55.3,30.07,WNW,282,0.0,0.0,85,0.00,,,0.00,Wunderground v.1.15,2013-04-04 09:06:00,
2013-04-04 02:08:00,59.8,55.0,30.07,WNW,282,0.0,0.0,84,0.00,,,0.00,Wunderground v.1.15,2013-04-04 09:08:00,
2013-04-04 02:10:00,59.8,55.3,30.07,N/A,-737280,0.0,-999.0,85,0.00,,,0.00,Wunderground v.1.15,2013-04-04 09:10:00,
2013-04-04 02:14:00,59.8,55.3,30.07,WNW,282,0.0,0.0,85,0.00,,,0.00,Wunderground v.1.15,2013-04-04 09:14:00,
2013-04-04 02:15:00,59.8,55.3,30.07,WNW,293,1.0,-999.0,85,0.00,,,0.00,Wunderground v.1.15,2013-04-04 09:15:00,
2013-04-04 02:20:00,59.8,55.3,30.07,WSW,257,1.0,5.0,85,0.00,,,0.00,Wunderground v.1.15,2013-04-04 09:20:00,
2013-04-04 02:24:00,59.8,55.3,30.07,WSW,252,1.0,5.0,85,0.00,,,0.00,Wunderground v.1.15,2013-04-04 09:24:00,
2013-04-04 02:25:00,59.8,55.3,30.07,WSW,248,2.0,-999.0,85,0.00,,,0.00,Wunderground v.1.15,2013-04-04 09:25:00,
2013-04-04 02:26:00,59.8,55.3,30.07,WSW,251,2.0,5.0,85,0.00,,,0.00,Wunderground v.1.15,2013-04-04 09:26:00,
2013-04-04 02:30:00,59.8,55.3,30.07,WSW,251,2.0,2.0,85,0.00,,,0.00,Wunderground v.1.15,2013-04-04 09:30:00,
2013-04-04 02:32:00,59.8,55.3,30.07,WSW,251,1.0,3.0,85,0.00,,,0.00,Wunderground v.1.15,2013-04-04 09:32:00,
2013-04-04 02:34:00,59.7,55.2,30.07,WSW,251,1.0,3.0,85,0.00,,,0.00,Wunderground v.1.15,2013-04-04 09:34:00,
2013-04-04 02:35:00,59.7,55.2,30.07,WSW,248,1.0,-999.0,85,0.00,,,0.00,Wunderground v.1.15,2013-04-04 09:35:00,
2013-04-04 02:36:00,59.7,55.2,30.07,WSW,251,1.0,3.0,85,0.00,,,0.00,Wunderground v.1.15,2013-04-04 09:36:00,
2013-04-04 02:38:00,59.7,55.2,30.06,WSW,251,1.0,3.0,85,0.00,,,0.00,Wunderground v.1.15,2013-04-04 09:38:00,
2013-04-04 02:40:00,59.7,55.2,30.07,WSW,248,1.0,-999.0,85,0.00,,,0.00,Wunderground v.1.15,2013-04-04 09:40:00,
2013-04-04 02:42:00,59.7,55.2,30.07,WSW,251,1.0,2.0,85,0.00,,,0.00,Wunderground v.1.15,2013-04-04 09:42:00,
2013-04-04 02:44:00,59.7,55.2,30.07,WSW,250,1.0,2.0,85,0.00,,,0.00,Wunderground v.1.15,2013-04-04 09:44:00,
2013-04-04 02:45:00,59.6,55.1,30.06,WSW,248,1.0,-999.0,85,0.00,,,0.00,Wunderground v.1.15,2013-04-04 09:45:00,
2013-04-04 02:46:00,59.6,55.1,30.07,WSW,250,1.0,2.0,85,0.00,,,0.00,Wunderground v.1.15,2013-04-04 09:46:00,
2013-04-04 02:48:00,59.6,55.1,30.07,WSW,250,1.0,2.0,85,0.00,,,0.00,Wunderground v.1.15,2013-04-04 09:48:00,
2013-04-04 02:50:00,59.5,55.0,30.06,WSW,249,1.0,1.0,85,0.00,,,0.00,Wunderground v.1.15,2013-04-04 09:50:00,
2013-04-04 02:52:00,59.5,55.0,30.07,WSW,249,2.0,2.0,85,0.00,,,0.00,Wunderground v.1.15,2013-04-04 09:52:00,
2013-04-04 02:54:00,59.4,54.9,30.07,SW,224,2.0,3.0,85,0.00,,,0.00,Wunderground v.1.15,2013-04-04 09:54:00,
2013-04-04 02:55:00,59.3,54.8,30.07,WSW,248,2.0,-999.0,85,0.00,,,0.00,Wunderground v.1.15,2013-04-04 09:55:00,
2013-04-04 02:56:00,59.4,54.9,30.07,SSW,205,2.0,4.0,85,0.00,,,0.00,Wunderground v.1.15,2013-04-04 09:56:00,
2013-04-04 02:58:00,59.3,54.8,30.07,SSW,201,2.0,4.0,85,0.00,,,0.00,Wunderground v.1.15,2013-04-04 09:58:00,
2013-04-04 03:00:00,59.3,54.8,30.07,SSW,201,2.0,4.0,85,0.00,,,0.00,Wunderground v.1.15,2013-04-04 10:00:00,
2013-04-04 03:02:00,59.3,55.1,30.07,SSW,201,2.0,4.0,86,0.00,,,0.00,Wunderground v.1.15,2013-04-04 10:02:00,
2013-04-04 03:04:00,59.3,54.8,30.07,South,190,2.0,4.0,85,0.00,,,0.00,Wunderground v.1.15,2013-04-04 10:04:00,
2013-04-04 03:05:00,59.1,54.9,30.07,South,180,1.0,-999.0,86,0.00,,,0.00,Wunderground v.1.15,2013-04-04 10:05:00,
2013-04-04 03:08:00,59.1,54.9,30.06,South,189,1.0,4.0,86,0.00,,,0.00,Wunderground v.1.15,2013-04-04 10:08:00,
2013-04-04 03:10:00,59.1,54.9,30.07,South,189,1.0,1.0,86,0.00,,,0.00,Wunderground v.1.15,2013-04-04 10:10:00,
2013-04-04 03:12:00,59.1,54.9,30.07,South,189,1.0,1.0,86,0.00,,,0.00,Wunderground v.1.15,2013-04-04 10:12:00,
2013-04-04 03:15:00,59.1,54.9,30.06,South,180,0.0,-999.0,86,0.00,,,0.00,Wunderground v.1.15,2013-04-04 10:15:00,
2013-04-04 03:16:00,59.1,54.9,30.06,South,189,1.0,2.0,86,0.00,,,0.00,Wunderground v.1.15,2013-04-04 10:16:00,
2013-04-04 03:20:00,59.0,54.8,30.06,South,189,0.0,0.0,86,0.00,,,0.00,Wunderground v.1.15,2013-04-04 10:20:00,
2013-04-04 03:22:00,59.0,54.8,30.06,South,189,0.0,0.0,86,0.00,,,0.00,Wunderground v.1.15,2013-04-04 10:22:00,
2013-04-04 03:24:00,59.0,54.8,30.06,South,189,0.0,0.0,86,0.00,,,0.00,Wunderground v.1.15,2013-04-04 10:24:00,
2013-04-04 03:25:00,59.0,54.8,30.06,South,180,0.0,-999.0,86,0.00,,,0.00,Wunderground v.1.15,2013-04-04 10:25:00,
2013-04-04 03:30:00,59.0,54.8,30.06,South,189,0.0,0.0,86,0.00,,,0.00,Wunderground v.1.15,2013-04-04 10:30:00,
2013-04-04 03:32:00,59.0,54.8,30.06,South,189,0.0,0.0,86,0.00,,,0.00,Wunderground v.1.15,2013-04-04 10:32:00,
2013-04-04 03:35:00,59.0,54.8,30.05,South,180,0.0,-999.0,86,0.00,,,0.00,Wunderground v.1.15,2013-04-04 10:35:00,
2013-04-04 03:36:00,59.0,54.8,30.06,South,189,0.0,0.0,86,0.00,,,0.00,Wunderground v.1.15,2013-04-04 10:36:00,
2013-04-04 03:38:00,59.0,54.8,30.05,South,189,0.0,0.0,86,0.00,,,0.00,Wunderground v.1.15,2013-04-04 10:38:00,
2013-04-04 03:40:00,59.0,54.8,30.05,South,180,0.0,-999.0,86,0.00,,,0.00,Wunderground v.1.15,2013-04-04 10:40:00,
2013-04-04 03:42:00,59.0,54.8,30.06,South,189,0.0,0.0,86,0.00,,,0.00,Wunderground v.1.15,2013-04-04 10:42:00,
2013-04-04 03:44:00,59.0,54.8,30.06,South,189,0.0,0.0,86,0.00,,,0.00,Wunderground v.1.15,2013-04-04 10:44:00,
2013-04-04 03:45:00,59.0,54.8,30.06,South,180,0.0,-999.0,86,0.00,,,0.00,Wunderground v.1.15,2013-04-04 10:45:00,
2013-04-04 03:46:00,59.0,54.8,30.06,South,189,0.0,0.0,86,0.00,,,0.00,Wunderground v.1.15,2013-04-04 10:46:00,
2013-04-04 03:48:00,59.0,54.8,30.06,South,189,0.0,0.0,86,0.00,,,0.00,Wunderground v.1.15,2013-04-04 10:48:00,
2013-04-04 03:50:00,59.0,54.8,30.06,South,189,0.0,0.0,86,0.00,,,0.00,Wunderground v.1.15,2013-04-04 10:50:00,
2013-04-04 03:54:00,59.0,54.8,30.06,South,189,0.0,0.0,86,0.00,,,0.00,Wunderground v.1.15,2013-04-04 10:54:00,
2013-04-04 03:55:00,59.0,54.8,30.06,South,180,0.0,-999.0,86,0.00,,,0.00,Wunderground v.1.15,2013-04-04 10:55:00,
2013-04-04 03:56:00,59.0,54.8,30.06,South,189,0.0,0.0,86,0.00,,,0.00,Wunderground v.1.15,2013-04-04 10:56:00,
2013-04-04 03:58:00,59.0,54.8,30.06,South,189,0.0,0.0,86,0.00,,,0.00,Wunderground v.1.15,2013-04-04 10:58:00,
2013-04-04 04:00:00,59.0,54.8,30.06,South,189,0.0,0.0,86,0.00,,,0.00,Wunderground v.1.15,2013-04-04 11:00:00,
2013-04-04 04:05:00,58.9,54.7,30.05,South,180,0.0,-999.0,86,0.00,,,0.00,Wunderground v.1.15,2013-04-04 11:05:00,
2013-04-04 04:06:00,58.9,54.7,30.06,South,189,0.0,1.0,86,0.00,,,0.00,Wunderground v.1.15,2013-04-04 11:06:00,
2013-04-04 04:08:00,58.9,54.7,30.06,South,189,0.0,1.0,86,0.00,,,0.00,Wunderground v.1.15,2013-04-04 11:08:00,
2013-04-04 04:10:00,58.9,54.7,30.05,South,189,0.0,1.0,86,0.00,,,0.00,Wunderground v.1.15,2013-04-04 11:10:00,
2013-04-04 04:14:00,58.9,54.7,30.05,South,189,0.0,1.0,86,0.00,,,0.00,Wunderground v.1.15,2013-04-04 11:14:00,
2013-04-04 04:15:00,58.8,54.6,30.05,South,180,0.0,-999.0,86,0.00,,,0.00,Wunderground v.1.15,2013-04-04 11:15:00,
2013-04-04 04:20:00,58.8,54.6,30.05,South,189,0.0,0.0,86,0.00,,,0.00,Wunderground v.1.15,2013-04-04 11:20:00,
2013-04-04 04:22:00,58.8,54.6,30.05,South,189,0.0,3.0,86,0.00,,,0.00,Wunderground v.1.15,2013-04-04 11:22:00,
2013-04-04 04:24:00,58.8,54.6,30.05,South,189,1.0,3.0,86,0.00,,,0.00,Wunderground v.1.15,2013-04-04 11:24:00,
2013-04-04 04:25:00,58.8,54.6,30.06,South,180,1.0,-999.0,86,0.00,,,0.00,Wunderground v.1.15,2013-04-04 11:25:00,
2013-04-04 04:26:00,58.7,54.5,30.05,South,189,1.0,3.0,86,0.00,,,0.00,Wunderground v.1.15,2013-04-04 11:26:00,
2013-04-04 04:30:00,58.8,54.6,30.06,South,189,1.0,1.0,86,0.00,,,0.00,Wunderground v.1.15,2013-04-04 11:30:00,
2013-04-04 04:32:00,58.8,54.6,30.06,South,189,0.0,3.0,86,0.00,,,0.00,Wunderground v.1.15,2013-04-04 11:32:00,
2013-04-04 04:35:00,58.7,54.5,30.06,South,180,1.0,-999.0,86,0.00,,,0.00,Wunderground v.1.15,2013-04-04 11:35:00,
2013-04-04 04:36:00,58.8,54.6,30.06,South,189,1.0,3.0,86,0.00,,,0.00,Wunderground v.1.15,2013-04-04 11:36:00,
2013-04-04 04:38:00,58.8,54.6,30.06,South,189,1.0,3.0,86,0.00,,,0.00,Wunderground v.1.15,2013-04-04 11:38:00,
2013-04-04 04:40:00,58.8,54.6,30.06,South,189,1.0,1.0,86,0.00,,,0.00,Wunderground v.1.15,2013-04-04 11:40:00,
2013-04-04 04:42:00,58.7,54.5,30.06,South,189,1.0,4.0,86,0.00,,,0.00,Wunderground v.1.15,2013-04-04 11:42:00,
2013-04-04 04:45:00,58.7,54.5,30.06,South,180,1.0,-999.0,86,0.00,,,0.00,Wunderground v.1.15,2013-04-04 11:45:00,
2013-04-04 04:46:00,58.7,54.5,30.06,South,189,1.0,4.0,86,0.00,,,0.00,Wunderground v.1.15,2013-04-04 11:46:00,
2013-04-04 04:50:00,58.7,54.5,30.06,South,180,1.0,-999.0,86,0.00,,,0.00,Wunderground v.1.15,2013-04-04 11:50:00,
2013-04-04 04:52:00,58.7,54.5,30.05,South,189,1.0,2.0,86,0.00,,,0.00,Wunderground v.1.15,2013-04-04 11:52:00,
2013-04-04 04:54:00,58.7,54.5,30.05,South,189,1.0,3.0,86,0.00,,,0.00,Wunderground v.1.15,2013-04-04 11:54:00,
2013-04-04 04:55:00,58.6,54.4,30.05,South,180,2.0,-999.0,86,0.00,,,0.00,Wunderground v.1.15,2013-04-04 11:55:00,
2013-04-04 04:58:00,58.6,54.4,30.05,South,189,2.0,3.0,86,0.00,,,0.00,Wunderground v.1.15,2013-04-04 11:58:00,
2013-04-04 05:00:00,58.6,54.4,30.05,South,180,2.0,-999.0,86,0.00,,,0.00,Wunderground v.1.15,2013-04-04 12:00:00,
2013-04-04 05:02:00,58.6,54.4,30.05,South,189,2.0,2.0,86,0.00,,,0.00,Wunderground v.1.15,2013-04-04 12:02:00,
2013-04-04 05:04:00,58.5,54.3,30.05,SSW,192,1.0,2.0,86,0.00,,,0.00,Wunderground v.1.15,2013-04-04 12:04:00,
2013-04-04 05:05:00,58.5,54.6,30.05,SSW,203,1.0,-999.0,87,0.00,,,0.00,Wunderground v.1.15,2013-04-04 12:05:00,
2013-04-04 05:10:00,58.5,54.6,30.05,SSW,192,1.0,1.0,87,0.00,,,0.00,Wunderground v.1.15,2013-04-04 12:10:00,
2013-04-04 05:15:00,58.4,54.5,30.05,SSW,203,1.0,-999.0,87,0.00,,,0.00,Wunderground v.1.15,2013-04-04 12:15:00,
2013-04-04 05:16:00,58.4,54.5,30.05,South,188,1.0,3.0,87,0.00,,,0.00,Wunderground v.1.15,2013-04-04 12:16:00,
2013-04-04 05:18:00,58.4,54.2,30.05,South,188,1.0,3.0,86,0.00,,,0.00,Wunderground v.1.15,2013-04-04 12:18:00,
2013-04-04 05:20:00,58.4,54.5,30.05,South,188,1.0,1.0,87,0.00,,,0.00,Wunderground v.1.15,2013-04-04 12:20:00,
2013-04-04 05:24:00,58.3,54.4,30.05,South,188,1.0,1.0,87,0.00,,,0.00,Wunderground v.1.15,2013-04-04 12:24:00,
2013-04-04 05:25:00,58.3,54.4,30.05,South,180,1.0,-999.0,87,0.00,,,0.00,Wunderground v.1.15,2013-04-04 12:25:00,
2013-04-04 05:30:00,58.3,54.4,30.05,South,188,1.0,2.0,87,0.00,,,0.00,Wunderground v.1.15,2013-04-04 12:30:00,
2013-04-04 05:32:00,58.2,54.3,30.05,South,188,1.0,2.0,87,0.00,,,0.00,Wunderground v.1.15,2013-04-04 12:32:00,
2013-04-04 05:34:00,58.2,54.3,30.04,South,188,1.0,2.0,87,0.00,,,0.00,Wunderground v.1.15,2013-04-04 12:34:00,
2013-04-04 05:35:00,58.2,54.3,30.04,South,180,0.0,-999.0,87,0.00,,,0.00,Wunderground v.1.15,2013-04-04 12:35:00,
2013-04-04 05:38:00,58.2,54.3,30.04,South,188,1.0,2.0,87,0.00,,,0.00,Wunderground v.1.15,2013-04-04 12:38:00,
2013-04-04 05:40:00,58.2,54.3,30.04,South,180,0.0,-999.0,87,0.00,,,0.00,Wunderground v.1.15,2013-04-04 12:40:00,
2013-04-04 05:44:00,58.2,54.3,30.04,South,188,0.0,0.0,87,0.00,,,0.00,Wunderground v.1.15,2013-04-04 12:44:00,
2013-04-04 05:45:00,58.1,54.2,30.04,South,180,0.0,-999.0,87,0.00,,,0.00,Wunderground v.1.15,2013-04-04 12:45:00,
2013-04-04 05:50:00,58.1,54.2,30.04,South,188,0.0,0.0,87,0.00,,,0.00,Wunderground v.1.15,2013-04-04 12:50:00,
2013-04-04 05:52:00,58.1,54.2,30.04,South,188,0.0,0.0,87,0.00,,,0.00,Wunderground v.1.15,2013-04-04 12:52:00,
2013-04-04 05:55:00,58.2,54.3,30.04,N/A,-737280,0.0,-999.0,87,0.00,,,0.00,Wunderground v.1.15,2013-04-04 12:55:00,
2013-04-04 05:58:00,58.1,54.2,30.04,South,188,0.0,0.0,87,0.00,,,0.00,Wunderground v.1.15,2013-04-04 12:58:00,
2013-04-04 06:00:00,58.2,54.3,30.04,N/A,-737280,0.0,-999.0,87,0.00,,,0.00,Wunderground v.1.15,2013-04-04 13:00:00,
2013-04-04 06:02:00,58.2,54.3,30.04,South,188,0.0,0.0,87,0.00,,,0.00,Wunderground v.1.15,2013-04-04 13:02:00,
2013-04-04 06:04:00,58.2,54.3,30.04,South,188,0.0,0.0,87,0.00,,,0.00,Wunderground v.1.15,2013-04-04 13:04:00,
2013-04-04 06:05:00,58.2,54.3,30.04,N/A,-737280,0.0,-999.0,87,0.00,,,0.00,Wunderground v.1.15,2013-04-04 13:05:00,
2013-04-04 06:06:00,58.2,54.3,30.04,South,188,0.0,0.0,87,0.00,,,0.00,Wunderground v.1.15,2013-04-04 13:06:00,
2013-04-04 06:08:00,58.2,54.3,30.04,South,188,0.0,0.0,87,0.00,,,0.00,Wunderground v.1.15,2013-04-04 13:08:00,
2013-04-04 06:10:00,58.2,54.3,30.04,South,188,0.0,0.0,87,0.00,,,0.00,Wunderground v.1.15,2013-04-04 13:10:00,
2013-04-04 06:15:00,58.2,54.3,30.05,South,180,0.0,-999.0,87,0.00,,,0.00,Wunderground v.1.15,2013-04-04 13:15:00,
2013-04-04 06:18:00,58.2,54.3,30.05,South,188,0.0,0.0,87,0.00,,,0.00,Wunderground v.1.15,2013-04-04 13:18:00,
2013-04-04 06:20:00,58.2,54.3,30.05,South,188,0.0,0.0,87,0.00,,,0.00,Wunderground v.1.15,2013-04-04 13:20:00,
2013-04-04 06:24:00,58.2,54.0,30.05,South,188,0.0,3.0,86,0.00,,,0.00,Wunderground v.1.15,2013-04-04 13:24:00,
2013-04-04 06:25:00,58.2,54.0,30.05,South,180,1.0,-999.0,86,0.00,,,0.00,Wunderground v.1.15,2013-04-04 13:25:00,
2013-04-04 06:26:00,58.2,54.0,30.05,South,188,0.0,3.0,86,0.00,,,0.00,Wunderground v.1.15,2013-04-04 13:26:00,
2013-04-04 06:28:00,58.2,54.0,30.05,South,188,0.0,3.0,86,0.00,,,0.00,Wunderground v.1.15,2013-04-04 13:28:00,
2013-04-04 06:30:00,58.2,54.0,30.06,South,188,1.0,1.0,86,0.00,,,0.00,Wunderground v.1.15,2013-04-04 13:30:00,
2013-04-04 06:34:00,58.2,54.0,30.06,South,188,1.0,1.0,86,0.00,,,0.00,Wunderground v.1.15,2013-04-04 13:34:00,
2013-04-04 06:35:00,58.3,53.8,30.06,South,180,0.0,-999.0,85,0.00,,,0.00,Wunderground v.1.15,2013-04-04 13:35:00,
2013-04-04 06:36:00,58.3,53.8,30.06,South,188,1.0,1.0,85,0.00,,,0.00,Wunderground v.1.15,2013-04-04 13:36:00,
2013-04-04 06:40:00,58.3,53.8,30.07,South,188,0.0,0.0,85,0.00,,,0.00,Wunderground v.1.15,2013-04-04 13:40:00,
2013-04-04 06:42:00,58.3,53.8,30.07,South,188,0.0,0.0,85,0.00,,,0.00,Wunderground v.1.15,2013-04-04 13:42:00,
2013-04-04 06:45:00,58.5,54.0,30.07,South,180,0.0,-999.0,85,0.00,,,0.00,Wunderground v.1.15,2013-04-04 13:45:00,
2013-04-04 06:46:00,58.3,53.8,30.07,South,188,0.0,0.0,85,0.00,,,0.00,Wunderground v.1.15,2013-04-04 13:46:00,
2013-04-04 06:48:00,58.4,53.9,30.07,South,188,0.0,0.0,85,0.00,,,0.00,Wunderground v.1.15,2013-04-04 13:48:00,
2013-04-04 06:50:00,58.5,54.3,30.07,South,188,0.0,0.0,86,0.00,,,0.00,Wunderground v.1.15,2013-04-04 13:50:00,
2013-04-04 06:54:00,58.5,54.0,30.07,South,188,0.0,0.0,85,0.00,,,0.00,Wunderground v.1.15,2013-04-04 13:54:00,
2013-04-04 06:55:00,58.6,54.4,30.06,N/A,-737280,0.0,-999.0,86,0.00,,,0.00,Wunderground v.1.15,2013-04-04 13:55:00,
2013-04-04 06:56:00,58.6,54.1,30.06,South,188,0.0,0.0,85,0.00,,,0.00,Wunderground v.1.15,2013-04-04 13:56:00,
2013-04-04 06:58:00,58.6,54.1,30.06,South,188,0.0,0.0,85,0.00,,,0.00,Wunderground v.1.15,2013-04-04 13:58:00,
2013-04-04 07:00:00,58.6,54.4,30.06,South,188,0.0,0.0,86,0.00,,,0.00,Wunderground v.1.15,2013-04-04 14:00:00,
2013-04-04 07:04:00,58.7,54.5,30.06,South,188,0.0,0.0,86,0.00,,,0.00,Wunderground v.1.15,2013-04-04 14:04:00,
2013-04-04 07:05:00,58.8,54.3,30.07,N/A,-737280,0.0,-999.0,85,0.00,,,0.00,Wunderground v.1.15,2013-04-04 14:05:00,
2013-04-04 07:06:00,58.7,54.2,30.07,South,188,0.0,0.0,85,0.00,,,0.00,Wunderground v.1.15,2013-04-04 14:06:00,
2013-04-04 07:10:00,58.8,54.3,30.07,N/A,-737280,0.0,-999.0,85,0.00,,,0.00,Wunderground v.1.15,2013-04-04 14:10:00,
2013-04-04 07:12:00,58.9,54.4,30.07,South,188,0.0,0.0,85,0.00,,,0.00,Wunderground v.1.15,2013-04-04 14:12:00,
2013-04-04 07:14:00,58.9,54.4,30.07,South,188,0.0,0.0,85,0.00,,,0.00,Wunderground v.1.15,2013-04-04 14:14:00,
2013-04-04 07:15:00,59.0,54.5,30.08,N/A,-737280,0.0,-999.0,85,0.00,,,0.00,Wunderground v.1.15,2013-04-04 14:15:00,
2013-04-04 07:18:00,59.0,54.5,30.08,South,188,0.0,0.0,85,0.00,,,0.00,Wunderground v.1.15,2013-04-04 14:18:00,
2013-04-04 07:20:00,59.1,54.6,30.08,South,188,0.0,0.0,85,0.00,,,0.00,Wunderground v.1.15,2013-04-04 14:20:00,
2013-04-04 07:22:00,59.1,54.6,30.08,South,188,0.0,0.0,85,0.00,,,0.00,Wunderground v.1.15,2013-04-04 14:22:00,
2013-04-04 07:25:00,59.5,55.0,30.08,N/A,-737280,0.0,-999.0,85,0.00,,,0.00,Wunderground v.1.15,2013-04-04 14:25:00,
2013-04-04 07:26:00,59.3,54.8,30.08,South,188,0.0,0.0,85,0.00,,,0.00,Wunderground v.1.15,2013-04-04 14:26:00,
2013-04-04 07:30:00,59.5,55.0,30.08,N/A,-737280,0.0,-999.0,85,0.00,,,0.00,Wunderground v.1.15,2013-04-04 14:30:00,
2013-04-04 07:32:00,59.5,55.0,30.08,South,188,0.0,0.0,85,0.00,,,0.00,Wunderground v.1.15,2013-04-04 14:32:00,
2013-04-04 07:34:00,59.5,55.0,30.08,South,188,0.0,0.0,85,0.00,,,0.00,Wunderground v.1.15,2013-04-04 14:34:00,
2013-04-04 07:35:00,59.6,55.1,30.08,South,180,0.0,-999.0,85,0.00,,,0.00,Wunderground v.1.15,2013-04-04 14:35:00,
2013-04-04 07:36:00,59.6,55.1,30.08,South,188,0.0,0.0,85,0.00,,,0.00,Wunderground v.1.15,2013-04-04 14:36:00,
2013-04-04 07:38:00,59.6,55.1,30.08,South,188,0.0,0.0,85,0.00,,,0.00,Wunderground v.1.15,2013-04-04 14:38:00,
2013-04-04 07:40:00,59.6,55.1,30.08,South,180,0.0,-999.0,85,0.00,,,0.00,Wunderground v.1.15,2013-04-04 14:40:00,
2013-04-04 07:44:00,59.7,54.9,30.09,South,188,0.0,0.0,84,0.00,,,0.00,Wunderground v.1.15,2013-04-04 14:44:00,
2013-04-04 07:45:00,59.7,54.9,30.09,South,180,0.0,-999.0,84,0.00,,,0.00,Wunderground v.1.15,2013-04-04 14:45:00,
2013-04-04 07:46:00,59.7,54.9,30.09,South,188,0.0,0.0,84,0.00,,,0.00,Wunderground v.1.15,2013-04-04 14:46:00,
2013-04-04 07:48:00,59.7,54.9,30.09,South,188,0.0,0.0,84,0.00,,,0.00,Wunderground v.1.15,2013-04-04 14:48:00,
2013-04-04 07:50:00,59.7,54.9,30.09,SSW,197,0.0,0.0,84,0.00,,,0.00,Wunderground v.1.15,2013-04-04 14:50:00,
2013-04-04 07:54:00,59.7,54.5,30.09,West,272,1.0,2.0,83,0.00,,,0.00,Wunderground v.1.15,2013-04-04 14:54:00,
2013-04-04 07:55:00,59.6,54.4,30.09,West,270,2.0,-999.0,83,0.00,,,0.00,Wunderground v.1.15,2013-04-04 14:55:00,
2013-04-04 07:56:00,59.7,54.5,30.09,West,277,2.0,4.0,83,0.00,,,0.00,Wunderground v.1.15,2013-04-04 14:56:00,
2013-04-04 07:58:00,59.6,54.4,30.09,West,277,2.0,4.0,83,0.00,,,0.00,Wunderground v.1.15,2013-04-04 14:58:00,
2013-04-04 08:00:00,59.6,54.4,30.09,West,270,2.0,-999.0,83,0.00,,,0.00,Wunderground v.1.15,2013-04-04 15:00:00,
2013-04-04 08:02:00,59.7,54.5,30.08,NW,312,2.0,2.0,83,0.00,,,0.00,Wunderground v.1.15,2013-04-04 15:02:00,
2013-04-04 08:04:00,59.8,54.6,30.08,NW,312,1.0,2.0,83,0.00,,,0.00,Wunderground v.1.15,2013-04-04 15:04:00,
2013-04-04 08:05:00,60.0,54.8,30.08,NW,315,0.0,-999.0,83,0.00,,,0.00,Wunderground v.1.15,2013-04-04 15:05:00,
2013-04-04 08:06:00,59.8,54.6,30.08,NW,313,1.0,2.0,83,0.00,,,0.00,Wunderground v.1.15,2013-04-04 15:06:00,
2013-04-04 08:08:00,59.9,54.7,30.08,NW,313,0.0,2.0,83,0.00,,,0.00,Wunderground v.1.15,2013-04-04 15:08:00,
2013-04-04 08:10:00,60.0,54.8,30.08,NW,315,0.0,-999.0,83,0.00,,,0.00,Wunderground v.1.15,2013-04-04 15:10:00,
2013-04-04 08:12:00,60.1,54.9,30.08,NW,313,0.0,0.0,83,0.00,,,0.00,Wunderground v.1.15,2013-04-04 15:12:00,
2013-04-04 08:14:00,60.3,55.1,30.09,NW,313,0.0,0.0,83,0.00,,,0.00,Wunderground v.1.15,2013-04-04 15:14:00,
2013-04-04 08:15:00,60.5,55.0,30.09,NW,315,0.0,-999.0,82,0.00,,,0.00,Wunderground v.1.15,2013-04-04 15:15:00,
2013-04-04 08:20:00,60.5,55.0,30.09,NW,313,0.0,0.0,82,0.00,,,0.00,Wunderground v.1.15,2013-04-04 15:20:00,
2013-04-04 08:22:00,60.6,55.1,30.09,NW,313,0.0,1.0,82,0.00,,,0.00,Wunderground v.1.15,2013-04-04 15:22:00,
2013-04-04 08:24:00,60.6,54.7,30.09,NW,313,0.0,1.0,81,0.00,,,0.00,Wunderground v.1.15,2013-04-04 15:24:00,
2013-04-04 08:25:00,60.7,54.8,30.09,NW,315,0.0,-999.0,81,0.00,,,0.00,Wunderground v.1.15,2013-04-04 15:25:00,
2013-04-04 08:28:00,60.7,54.8,30.09,NW,313,0.0,1.0,81,0.00,,,0.00,Wunderground v.1.15,2013-04-04 15:28:00,
2013-04-04 08:30:00,60.7,54.8,30.09,NW,313,0.0,0.0,81,0.00,,,0.00,Wunderground v.1.15,2013-04-04 15:30:00,
2013-04-04 08:32:00,60.8,54.9,30.09,NW,313,0.0,0.0,81,0.00,,,0.00,Wunderground v.1.15,2013-04-04 15:32:00,
2013-04-04 08:34:00,60.9,55.0,30.09,NW,313,0.0,0.0,81,0.00,,,0.00,Wunderground v.1.15,2013-04-04 15:34:00,
2013-04-04 08:35:00,61.3,55.1,30.09,NW,315,0.0,-999.0,80,0.00,,,0.00,Wunderground v.1.15,2013-04-04 15:35:00,
2013-04-04 08:38:00,61.2,55.3,30.09,NW,313,0.0,0.0,81,0.00,,,0.00,Wunderground v.1.15,2013-04-04 15:38:00,
2013-04-04 08:40:00,61.3,55.1,30.09,NW,313,0.0,0.0,80,0.00,,,0.00,Wunderground v.1.15,2013-04-04 15:40:00,
2013-04-04 08:45:00,61.6,55.4,30.09,NW,315,0.0,-999.0,80,0.00,,,0.00,Wunderground v.1.15,2013-04-04 15:45:00,
2013-04-04 08:46:00,61.5,55.3,30.09,NW,313,0.0,0.0,80,0.00,,,0.00,Wunderground v.1.15,2013-04-04 15:46:00,
2013-04-04 08:50:00,61.6,55.4,30.09,NW,313,0.0,0.0,80,0.00,,,0.00,Wunderground v.1.15,2013-04-04 15:50:00,
2013-04-04 08:55:00,61.8,55.6,30.09,NW,315,0.0,-999.0,80,0.00,,,0.00,Wunderground v.1.15,2013-04-04 15:55:00,
2013-04-04 08:56:00,61.7,55.1,30.09,NW,313,0.0,0.0,79,0.00,,,0.00,Wunderground v.1.15,2013-04-04 15:56:00,
2013-04-04 08:58:00,61.7,55.1,30.09,NW,313,0.0,0.0,79,0.00,,,0.00,Wunderground v.1.15,2013-04-04 15:58:00,
2013-04-04 09:00:00,61.8,55.6,30.09,NW,315,0.0,-999.0,80,0.00,,,0.00,Wunderground v.1.15,2013-04-04 16:00:00,
2013-04-04 09:02:00,62.0,55.4,30.09,NW,313,0.0,0.0,79,0.00,,,0.00,Wunderground v.1.15,2013-04-04 16:02:00,
2013-04-04 09:04:00,62.0,55.4,30.09,NW,313,0.0,0.0,79,0.00,,,0.00,Wunderground v.1.15,2013-04-04 16:04:00,
2013-04-04 09:05:00,62.2,55.6,30.10,WNW,293,1.0,-999.0,79,0.00,,,0.00,Wunderground v.1.15,2013-04-04 16:05:00,
2013-04-04 09:08:00,62.1,55.5,30.10,WNW,285,0.0,2.0,79,0.00,,,0.00,Wunderground v.1.15,2013-04-04 16:08:00,
2013-04-04 09:10:00,62.2,55.6,30.10,WNW,293,1.0,-999.0,79,0.00,,,0.00,Wunderground v.1.15,2013-04-04 16:10:00,
2013-04-04 09:15:00,62.4,55.4,30.09,West,270,2.0,-999.0,78,0.00,,,0.00,Wunderground v.1.15,2013-04-04 16:15:00,
2013-04-04 09:20:00,62.4,55.4,30.09,West,270,2.0,-999.0,78,0.00,,,0.00,Wunderground v.1.15,2013-04-04 16:20:00,
2013-04-04 09:25:00,62.6,55.6,30.09,West,270,3.0,-999.0,78,0.00,,,0.00,Wunderground v.1.15,2013-04-04 16:25:00,
2013-04-04 09:30:00,62.6,55.6,30.09,West,270,3.0,-999.0,78,0.00,,,0.00,Wunderground v.1.15,2013-04-04 16:30:00,
2013-04-04 09:35:00,62.8,55.5,30.10,West,270,3.0,-999.0,77,0.00,,,0.00,Wunderground v.1.15,2013-04-04 16:35:00,
2013-04-04 09:40:00,62.8,55.5,30.10,West,270,3.0,-999.0,77,0.00,,,0.00,Wunderground v.1.15,2013-04-04 16:40:00,
2013-04-04 09:45:00,62.6,55.3,30.09,West,270,2.0,-999.0,77,0.00,,,0.00,Wunderground v.1.15,2013-04-04 16:45:00,
2013-04-04 09:50:00,62.6,55.3,30.09,West,270,2.0,-999.0,77,0.00,,,0.00,Wunderground v.1.15,2013-04-04 16:50:00,
2013-04-04 09:55:00,62.4,55.4,30.10,West,270,2.0,-999.0,78,0.00,,,0.00,Wunderground v.1.15,2013-04-04 16:55:00,
2013-04-04 10:00:00,62.4,55.4,30.10,West,270,2.0,-999.0,78,0.00,,,0.00,Wunderground v.1.15,2013-04-04 17:00:00,
2013-04-04 10:05:00,62.4,55.4,30.10,West,270,3.0,-999.0,78,0.00,,,0.00,Wunderground v.1.15,2013-04-04 17:05:00,
2013-04-04 10:10:00,62.4,55.4,30.10,West,270,3.0,-999.0,78,0.00,,,0.00,Wunderground v.1.15,2013-04-04 17:10:00,
2013-04-04 10:15:00,62.7,55.4,30.10,West,270,3.0,-999.0,77,0.00,,,0.00,Wunderground v.1.15,2013-04-04 17:15:00,
2013-04-04 10:20:00,62.7,55.4,30.10,West,270,3.0,-999.0,77,0.00,,,0.00,Wunderground v.1.15,2013-04-04 17:20:00,
2013-04-04 10:25:00,63.2,55.9,30.10,West,270,2.0,-999.0,77,0.00,,,0.00,Wunderground v.1.15,2013-04-04 17:25:00,
2013-04-04 10:30:00,63.2,55.9,30.10,West,270,2.0,-999.0,77,0.00,,,0.00,Wunderground v.1.15,2013-04-04 17:30:00,
2013-04-04 10:35:00,63.2,55.9,30.10,WSW,248,2.0,-999.0,77,0.00,,,0.00,Wunderground v.1.15,2013-04-04 17:35:00,
2013-04-04 10:40:00,63.2,55.9,30.10,WSW,248,2.0,-999.0,77,0.00,,,0.00,Wunderground v.1.15,2013-04-04 17:40:00,
2013-04-04 10:45:00,63.8,56.1,30.09,West,270,2.0,-999.0,76,0.00,,,0.00,Wunderground v.1.15,2013-04-04 17:45:00,
2013-04-04 10:50:00,63.8,56.1,30.09,West,270,2.0,-999.0,76,0.00,,,0.00,Wunderground v.1.15,2013-04-04 17:50:00,
2013-04-04 10:55:00,64.2,56.1,30.09,WSW,248,2.0,-999.0,75,0.00,,,0.00,Wunderground v.1.15,2013-04-04 17:55:00,
2013-04-04 11:00:00,64.2,56.1,30.09,WSW,248,2.0,-999.0,75,0.00,,,0.00,Wunderground v.1.15,2013-04-04 18:00:00,
2013-04-04 11:05:00,65.5,56.6,30.09,East,90,0.0,-999.0,73,0.00,,,0.00,Wunderground v.1.15,2013-04-04 18:05:00,
2013-04-04 11:10:00,65.5,56.6,30.09,East,90,0.0,-999.0,73,0.00,,,0.00,Wunderground v.1.15,2013-04-04 18:10:00,
2013-04-04 11:15:00,67.0,56.5,30.09,East,90,1.0,-999.0,69,0.00,,,0.00,Wunderground v.1.15,2013-04-04 18:15:00,
2013-04-04 11:20:00,67.0,56.5,30.09,East,90,1.0,-999.0,69,0.00,,,0.00,Wunderground v.1.15,2013-04-04 18:20:00,
2013-04-04 11:25:00,67.9,56.5,30.09,SSE,158,1.0,-999.0,67,0.00,,,0.00,Wunderground v.1.15,2013-04-04 18:25:00,
2013-04-04 11:30:00,67.9,56.5,30.09,SSE,158,1.0,-999.0,67,0.00,,,0.00,Wunderground v.1.15,2013-04-04 18:30:00,
2013-04-04 11:35:00,66.7,57.0,30.09,SW,225,4.0,-999.0,71,0.00,,,0.00,Wunderground v.1.15,2013-04-04 18:35:00,
2013-04-04 11:40:00,66.7,57.0,30.09,SW,225,4.0,-999.0,71,0.00,,,0.00,Wunderground v.1.15,2013-04-04 18:40:00,
2013-04-04 11:45:00,65.2,56.7,30.09,SSW,203,5.0,-999.0,74,0.00,,,0.00,Wunderground v.1.15,2013-04-04 18:45:00,
2013-04-04 11:50:00,65.2,56.7,30.09,SSW,203,5.0,-999.0,74,0.00,,,0.00,Wunderground v.1.15,2013-04-04 18:50:00,
2013-04-04 11:55:00,65.4,56.9,30.09,SW,225,6.0,-999.0,74,0.00,,,0.00,Wunderground v.1.15,2013-04-04 18:55:00,
2013-04-04 12:00:00,65.4,56.9,30.09,SW,225,6.0,-999.0,74,0.00,,,0.00,Wunderground v.1.15,2013-04-04 19:00:00,
2013-04-04 12:05:00,64.6,56.1,30.09,SW,225,6.0,-999.0,74,0.00,,,0.00,Wunderground v.1.15,2013-04-04 19:05:00,
2013-04-04 12:10:00,64.6,56.1,30.09,SW,225,6.0,-999.0,74,0.00,,,0.00,Wunderground v.1.15,2013-04-04 19:10:00,
2013-04-04 12:15:00,64.7,57.0,30.08,SSW,203,5.0,-999.0,76,0.00,,,0.00,Wunderground v.1.15,2013-04-04 19:15:00,
2013-04-04 12:20:00,64.7,57.0,30.08,SSW,203,5.0,-999.0,76,0.00,,,0.00,Wunderground v.1.15,2013-04-04 19:20:00,
2013-04-04 12:25:00,65.8,56.9,30.08,SSW,203,4.0,-999.0,73,0.00,,,0.00,Wunderground v.1.15,2013-04-04 19:25:00,
2013-04-04 12:30:00,65.8,56.9,30.08,SSW,203,4.0,-999.0,73,0.00,,,0.00,Wunderground v.1.15,2013-04-04 19:30:00,
2013-04-04 12:35:00,66.4,57.1,30.08,SW,225,4.0,-999.0,72,0.00,,,0.00,Wunderground v.1.15,2013-04-04 19:35:00,
2013-04-04 12:40:00,66.4,57.1,30.08,SW,225,4.0,-999.0,72,0.00,,,0.00,Wunderground v.1.15,2013-04-04 19:40:00,
2013-04-04 12:45:00,65.6,57.1,30.07,SW,225,5.0,-999.0,74,0.00,,,0.00,Wunderground v.1.15,2013-04-04 19:45:00,
2013-04-04 12:50:00,65.6,57.1,30.07,SW,225,5.0,-999.0,74,0.00,,,0.00,Wunderground v.1.15,2013-04-04 19:50:00,
2013-04-04 12:55:00,65.3,56.8,30.07,SW,225,6.0,-999.0,74,0.00,,,0.00,Wunderground v.1.15,2013-04-04 19:55:00,
2013-04-04 13:00:00,65.3,56.8,30.07,SW,225,6.0,-999.0,74,0.00,,,0.00,Wunderground v.1.15,2013-04-04 20:00:00,
2013-04-04 13:05:00,65.8,57.3,30.07,SW,225,4.0,-999.0,74,0.00,,,0.00,Wunderground v.1.15,2013-04-04 20:05:00,
2013-04-04 13:10:00,65.8,57.3,30.07,SW,225,4.0,-999.0,74,0.00,,,0.00,Wunderground v.1.15,2013-04-04 20:10:00,
2013-04-04 13:15:00,66.8,57.5,30.06,SW,225,4.0,-999.0,72,0.00,,,0.00,Wunderground v.1.15,2013-04-04 20:15:00,
2013-04-04 13:20:00,66.8,57.5,30.06,SW,225,4.0,-999.0,72,0.00,,,0.00,Wunderground v.1.15,2013-04-04 20:20:00,
2013-04-04 13:25:00,66.8,57.1,30.06,SW,225,4.0,-999.0,71,0.00,,,0.00,Wunderground v.1.15,2013-04-04 20:25:00,
2013-04-04 13:30:00,66.8,57.1,30.06,SW,225,4.0,-999.0,71,0.00,,,0.00,Wunderground v.1.15,2013-04-04 20:30:00,
2013-04-04 13:35:00,67.5,57.8,30.05,SSW,203,4.0,-999.0,71,0.00,,,0.00,Wunderground v.1.15,2013-04-04 20:35:00,
2013-04-04 13:40:00,67.5,57.8,30.05,SSW,203,4.0,-999.0,71,0.00,,,0.00,Wunderground v.1.15,2013-04-04 20:40:00,
2013-04-04 13:45:00,68.3,57.7,30.05,South,180,3.0,-999.0,69,0.00,,,0.00,Wunderground v.1.15,2013-04-04 20:45:00,
2013-04-04 13:50:00,68.3,57.7,30.05,South,180,3.0,-999.0,69,0.00,,,0.00,Wunderground v.1.15,2013-04-04 20:50:00,
2013-04-04 13:55:00,69.1,58.1,30.05,South,180,3.0,-999.0,68,0.00,,,0.00,Wunderground v.1.15,2013-04-04 20:55:00,
2013-04-04 14:00:00,69.1,58.1,30.05,South,180,3.0,-999.0,68,0.00,,,0.00,Wunderground v.1.15,2013-04-04 21:00:00,
2013-04-04 14:05:00,68.5,57.9,30.05,SW,225,4.0,-999.0,69,0.00,,,0.00,Wunderground v.1.15,2013-04-04 21:05:00,
2013-04-04 14:10:00,68.5,57.9,30.05,SW,225,4.0,-999.0,69,0.00,,,0.00,Wunderground v.1.15,2013-04-04 21:10:00,
2013-04-04 14:15:00,68.6,58.8,30.05,SW,225,4.0,-999.0,71,0.00,,,0.00,Wunderground v.1.15,2013-04-04 21:15:00,
2013-04-04 14:20:00,68.6,58.8,30.05,SW,225,4.0,-999.0,71,0.00,,,0.00,Wunderground v.1.15,2013-04-04 21:20:00,
2013-04-04 14:25:00,68.6,58.0,30.04,SSW,203,4.0,-999.0,69,0.00,,,0.00,Wunderground v.1.15,2013-04-04 21:25:00,
2013-04-04 14:28:00,68.6,58.4,30.05,South,183,4.0,4.0,70,0.00,,,0.00,Wunderground v.1.15,2013-04-04 21:28:00,
2013-04-04 14:30:00,68.6,58.0,30.04,WNW,290,4.0,4.0,69,0.00,,,0.00,Wunderground v.1.15,2013-04-04 21:30:00,
2013-04-04 14:32:00,68.6,58.0,30.04,South,188,4.0,4.0,69,0.00,,,0.00,Wunderground v.1.15,2013-04-04 21:32:00,
2013-04-04 14:34:00,68.7,58.1,30.04,South,191,4.0,4.0,69,0.00,,,0.00,Wunderground v.1.15,2013-04-04 21:34:00,
2013-04-04 14:35:00,68.7,57.7,30.04,South,180,3.0,-999.0,68,0.00,,,0.00,Wunderground v.1.15,2013-04-04 21:35:00,
2013-04-04 14:40:00,68.7,57.7,30.04,South,181,3.0,7.0,68,0.00,,,0.00,Wunderground v.1.15,2013-04-04 21:40:00,
2013-04-04 14:42:00,68.5,57.5,30.04,SSW,198,4.0,7.0,68,0.00,,,0.00,Wunderground v.1.15,2013-04-04 21:42:00,
2013-04-04 14:44:00,68.5,57.9,30.03,WSW,248,4.0,7.0,69,0.00,,,0.00,Wunderground v.1.15,2013-04-04 21:44:00,
2013-04-04 14:45:00,68.1,57.9,30.03,SSW,203,4.0,-999.0,70,0.00,,,0.00,Wunderground v.1.15,2013-04-04 21:45:00,
2013-04-04 14:46:00,68.3,57.7,30.03,South,182,4.0,4.0,69,0.00,,,0.00,Wunderground v.1.15,2013-04-04 21:46:00,
2013-04-04 14:50:00,68.1,57.9,30.03,South,178,4.0,4.0,70,0.00,,,0.00,Wunderground v.1.15,2013-04-04 21:50:00,
2013-04-04 14:52:00,68.3,58.5,30.03,SW,219,3.0,4.0,71,0.00,,,0.00,Wunderground v.1.15,2013-04-04 21:52:00,
2013-04-04 14:54:00,68.6,58.0,30.03,SSW,192,4.0,5.0,69,0.00,,,0.00,Wunderground v.1.15,2013-04-04 21:54:00,
2013-04-04 14:55:00,68.8,58.2,30.03,SSW,203,3.0,-999.0,69,0.00,,,0.00,Wunderground v.1.15,2013-04-04 21:55:00,
2013-04-04 15:00:00,68.8,58.2,30.03,SSW,203,3.0,-999.0,69,0.00,,,0.00,Wunderground v.1.15,2013-04-04 22:00:00,
2013-04-04 15:01:00,68.9,57.9,30.03,South,175,4.0,5.0,68,0.00,,,0.00,Wunderground v.1.15,2013-04-04 22:01:00,
2013-04-04 15:02:00,68.9,58.3,30.03,South,184,4.0,5.0,69,0.00,,,0.00,Wunderground v.1.15,2013-04-04 22:02:00,
2013-04-04 15:05:00,69.5,58.1,30.02,SSW,203,4.0,-999.0,67,0.00,,,0.00,Wunderground v.1.15,2013-04-04 22:05:00,
2013-04-04 15:06:00,69.5,58.5,30.03,SSW,209,4.0,6.0,68,0.00,,,0.00,Wunderground v.1.15,2013-04-04 22:06:00,
2013-04-04 15:08:00,69.5,58.1,30.02,SSW,194,4.0,6.0,67,0.00,,,0.00,Wunderground v.1.15,2013-04-04 22:08:00,
2013-04-04 15:10:00,69.5,58.1,30.02,SSW,196,4.0,6.0,67,0.00,,,0.00,Wunderground v.1.15,2013-04-04 22:10:00,
2013-04-04 15:14:00,69.9,58.4,30.02,SSW,211,4.0,4.0,67,0.00,,,0.00,Wunderground v.1.15,2013-04-04 22:14:00,
2013-04-04 15:15:00,70.1,57.8,30.02,South,180,4.0,-999.0,65,0.00,,,0.00,Wunderground v.1.15,2013-04-04 22:15:00,
2013-04-04 15:18:00,70.2,58.3,30.02,SSW,195,4.0,4.0,66,0.00,,,0.00,Wunderground v.1.15,2013-04-04 22:18:00,
2013-04-04 15:20:00,70.2,58.3,30.02,SSW,200,4.0,7.0,66,0.00,,,0.00,Wunderground v.1.15,2013-04-04 22:20:00,
2013-04-04 15:24:00,69.9,58.0,30.02,SSW,207,4.0,5.0,66,0.00,,,0.00,Wunderground v.1.15,2013-04-04 22:24:00,
2013-04-04 15:25:00,70.1,58.2,30.02,SSW,203,4.0,-999.0,66,0.00,,,0.00,Wunderground v.1.15,2013-04-04 22:25:00,
2013-04-04 15:26:00,70.0,58.1,30.02,SSW,197,4.0,5.0,66,0.00,,,0.00,Wunderground v.1.15,2013-04-04 22:26:00,
2013-04-04 15:28:00,70.0,58.5,30.02,SSW,199,4.0,5.0,67,0.00,,,0.00,Wunderground v.1.15,2013-04-04 22:28:00,
2013-04-04 15:30:00,70.1,58.2,30.02,SSW,203,4.0,-999.0,66,0.00,,,0.00,Wunderground v.1.15,2013-04-04 22:30:00,
2013-04-04 15:32:00,70.4,58.9,30.01,SSE,167,3.0,3.0,67,0.00,,,0.00,Wunderground v.1.15,2013-04-04 22:32:00,
2013-04-04 15:34:00,70.6,58.7,30.01,South,182,3.0,9.0,66,0.00,,,0.00,Wunderground v.1.15,2013-04-04 22:34:00,
2013-04-04 15:35:00,70.5,58.6,30.01,South,180,4.0,-999.0,66,0.00,,,0.00,Wunderground v.1.15,2013-04-04 22:35:00,
2013-04-04 15:40:00,70.5,58.6,30.01,SSW,192,4.0,9.0,66,0.00,,,0.00,Wunderground v.1.15,2013-04-04 22:40:00,
2013-04-04 15:45:00,71.8,59.0,30.01,SSW,203,2.0,-999.0,64,0.00,,,0.00,Wunderground v.1.15,2013-04-04 22:45:00,
2013-04-04 15:46:00,71.2,58.8,30.01,SSW,211,3.0,4.0,65,0.00,,,0.00,Wunderground v.1.15,2013-04-04 22:46:00,
2013-04-04 15:48:00,71.5,58.7,30.01,SSW,202,2.0,4.0,64,0.00,,,0.00,Wunderground v.1.15,2013-04-04 22:48:00,
2013-04-04 15:50:00,71.9,58.6,30.01,SSW,212,2.0,4.0,63,0.00,,,0.00,Wunderground v.1.15,2013-04-04 22:50:00,
2013-04-04 15:54:00,72.0,58.7,30.01,SSW,198,2.0,4.0,63,0.00,,,0.00,Wunderground v.1.15,2013-04-04 22:54:00,
2013-04-04 15:55:00,72.2,58.9,30.01,SSW,203,3.0,-999.0,63,0.00,,,0.00,Wunderground v.1.15,2013-04-04 22:55:00,
2013-04-04 15:58:00,72.0,58.7,30.00,NE,45,3.0,5.0,63,0.00,,,0.00,Wunderground v.1.15,2013-04-04 22:58:00,
2013-04-04 16:00:00,72.3,59.0,30.01,WSW,254,3.0,3.0,63,0.00,,,0.00,Wunderground v.1.15,2013-04-04 23:00:00,
2013-04-04 16:05:00,72.8,59.0,30.01,WSW,248,2.0,-999.0,62,0.00,,,0.00,Wunderground v.1.15,2013-04-04 23:05:00,
2013-04-04 16:06:00,72.8,58.6,30.00,SW,219,3.0,3.0,61,0.00,,,0.00,Wunderground v.1.15,2013-04-04 23:06:00,
2013-04-04 16:08:00,72.9,59.1,30.01,WSW,239,3.0,3.0,62,0.00,,,0.00,Wunderground v.1.15,2013-04-04 23:08:00,
2013-04-04 16:10:00,72.8,59.0,30.01,WSW,248,2.0,-999.0,62,0.00,,,0.00,Wunderground v.1.15,2013-04-04 23:10:00,
2013-04-04 16:12:00,72.7,58.5,30.00,SW,234,2.0,3.0,61,0.00,,,0.00,Wunderground v.1.15,2013-04-04 23:12:00,
2013-04-04 16:14:00,72.8,58.1,30.00,WSW,254,3.0,3.0,60,0.00,,,0.00,Wunderground v.1.15,2013-04-04 23:14:00,
2013-04-04 16:15:00,72.6,57.9,30.00,West,270,3.0,-999.0,60,0.00,,,0.00,Wunderground v.1.15,2013-04-04 23:15:00,
2013-04-04 16:16:00,72.7,58.0,30.00,West,279,3.0,3.0,60,0.00,,,0.00,Wunderground v.1.15,2013-04-04 23:16:00,
2013-04-04 16:20:00,72.7,58.0,30.00,West,268,3.0,5.0,60,0.00,,,0.00,Wunderground v.1.15,2013-04-04 23:20:00,
2013-04-04 16:22:00,72.6,57.9,30.00,SW,226,3.0,5.0,60,0.00,,,0.00,Wunderground v.1.15,2013-04-04 23:22:00,
2013-04-04 16:24:00,72.7,58.0,30.00,West,270,3.0,5.0,60,0.00,,,0.00,Wunderground v.1.15,2013-04-04 23:24:00,
2013-04-04 16:25:00,72.4,57.7,30.00,West,270,3.0,-999.0,60,0.00,,,0.00,Wunderground v.1.15,2013-04-04 23:25:00,
2013-04-04 16:26:00,72.6,57.4,30.00,WSW,237,3.0,5.0,59,0.00,,,0.00,Wunderground v.1.15,2013-04-04 23:26:00,
2013-04-04 16:30:00,72.4,57.3,30.00,WNW,283,3.0,5.0,59,0.00,,,0.00,Wunderground v.1.15,2013-04-04 23:30:00,
2013-04-04 16:32:00,72.3,57.6,30.00,SW,231,3.0,5.0,60,0.00,,,0.00,Wunderground v.1.15,2013-04-04 23:32:00,
2013-04-04 16:35:00,71.9,56.8,30.00,West,270,4.0,-999.0,59,0.00,,,0.00,Wunderground v.1.15,2013-04-04 23:35:00,
2013-04-04 16:38:00,72.0,56.9,30.00,West,260,4.0,6.0,59,0.00,,,0.00,Wunderground v.1.15,2013-04-04 23:38:00,
2013-04-04 16:40:00,71.9,56.8,30.00,West,267,4.0,5.0,59,0.00,,,0.00,Wunderground v.1.15,2013-04-04 23:40:00,
2013-04-04 16:45:00,71.5,56.9,30.00,West,270,5.0,-999.0,60,0.00,,,0.00,Wunderground v.1.15,2013-04-04 23:45:00,
2013-04-04 16:46:00,71.7,57.1,30.00,West,281,5.0,7.0,60,0.00,,,0.00,Wunderground v.1.15,2013-04-04 23:46:00,
2013-04-04 16:48:00,71.6,56.5,30.00,WNW,283,5.0,7.0,59,0.00,,,0.00,Wunderground v.1.15,2013-04-04 23:48:00,
2013-04-04 16:50:00,71.5,56.9,30.00,WSW,257,5.0,6.0,60,0.00,,,0.00,Wunderground v.1.15,2013-04-04 23:50:00,
2013-04-04 16:52:00,71.5,56.9,30.00,WSW,256,5.0,6.0,60,0.00,,,0.00,Wunderground v.1.15,2013-04-04 23:52:00,
2013-04-04 16:54:00,71.4,56.8,30.00,WNW,293,5.0,6.0,60,0.00,,,0.00,Wunderground v.1.15,2013-04-04 23:54:00,
2013-04-04 16:55:00,71.3,57.2,30.00,West,270,5.0,-999.0,61,0.00,,,0.00,Wunderground v.1.15,2013-04-04 23:55:00,
2013-04-04 16:58:00,71.3,57.2,30.00,WNW,286,5.0,6.0,61,0.00,,,0.00,Wunderground v.1.15,2013-04-04 23:58:00,
2013-04-04 17:00:00,71.3,57.2,30.00,NW,316,5.0,5.0,61,0.00,,,0.00,Wunderground v.1.15,2013-04-05 00:00:00,
2013-04-04 17:02:00,71.4,57.2,30.00,West,265,5.0,7.0,61,0.00,,,0.00,Wunderground v.1.15,2013-04-05 00:02:00,
2013-04-04 17:05:00,71.0,56.9,30.00,West,270,3.0,-999.0,61,0.00,,,0.00,Wunderground v.1.15,2013-04-05 00:05:00,
2013-04-04 17:06:00,71.2,57.1,30.00,NW,309,4.0,7.0,61,0.00,,,0.00,Wunderground v.1.15,2013-04-05 00:06:00,
2013-04-04 17:08:00,71.1,57.0,30.00,NW,315,3.0,7.0,61,0.00,,,0.00,Wunderground v.1.15,2013-04-05 00:08:00,
2013-04-04 17:10:00,71.0,56.9,30.00,West,270,3.0,-999.0,61,0.00,,,0.00,Wunderground v.1.15,2013-04-05 00:10:00,
2013-04-04 17:12:00,71.0,56.9,30.00,West,279,3.0,3.0,61,0.00,,,0.00,Wunderground v.1.15,2013-04-05 00:12:00,
2013-04-04 17:14:00,70.8,57.1,30.00,NW,309,3.0,6.0,62,0.00,,,0.00,Wunderground v.1.15,2013-04-05 00:14:00,
2013-04-04 17:15:00,70.7,57.0,30.00,West,270,4.0,-999.0,62,0.00,,,0.00,Wunderground v.1.15,2013-04-05 00:15:00,
2013-04-04 17:16:00,70.8,57.1,30.00,NW,325,3.0,6.0,62,0.00,,,0.00,Wunderground v.1.15,2013-04-05 00:16:00,
2013-04-04 17:20:00,70.7,57.0,30.00,WNW,289,4.0,4.0,62,0.00,,,0.00,Wunderground v.1.15,2013-04-05 00:20:00,
2013-04-04 17:22:00,70.6,57.4,30.00,West,267,4.0,4.0,63,0.00,,,0.00,Wunderground v.1.15,2013-04-05 00:22:00,
2013-04-04 17:25:00,70.5,57.3,30.00,West,270,4.0,-999.0,63,0.00,,,0.00,Wunderground v.1.15,2013-04-05 00:25:00,
2013-04-04 17:26:00,70.5,57.3,30.00,West,262,4.0,4.0,63,0.00,,,0.00,Wunderground v.1.15,2013-04-05 00:26:00,
2013-04-04 17:28:00,70.4,57.2,30.00,West,273,4.0,4.0,63,0.00,,,0.00,Wunderground v.1.15,2013-04-05 00:28:00,
2013-04-04 17:30:00,70.5,57.3,30.00,West,270,4.0,-999.0,63,0.00,,,0.00,Wunderground v.1.15,2013-04-05 00:30:00,
2013-04-04 17:32:00,70.6,57.4,30.00,West,267,3.0,4.0,63,0.00,,,0.00,Wunderground v.1.15,2013-04-05 00:32:00,
2013-04-04 17:34:00,70.6,57.4,30.00,West,269,3.0,4.0,63,0.00,,,0.00,Wunderground v.1.15,2013-04-05 00:34:00,
2013-04-04 17:35:00,70.4,57.2,30.00,West,270,3.0,-999.0,63,0.00,,,0.00,Wunderground v.1.15,2013-04-05 00:35:00,
2013-04-04 17:38:00,70.5,57.3,30.00,West,273,3.0,5.0,63,0.00,,,0.00,Wunderground v.1.15,2013-04-05 00:38:00,
2013-04-04 17:40:00,70.4,57.6,30.00,WNW,294,3.0,3.0,64,0.00,,,0.00,Wunderground v.1.15,2013-04-05 00:40:00,
2013-04-04 17:42:00,70.3,57.5,30.00,WNW,283,3.0,3.0,64,0.00,,,0.00,Wunderground v.1.15,2013-04-05 00:42:00,
2013-04-04 17:45:00,70.1,56.9,30.00,West,270,5.0,-999.0,63,0.00,,,0.00,Wunderground v.1.15,2013-04-05 00:45:00,
2013-04-04 17:46:00,70.2,57.0,30.00,West,259,4.0,5.0,63,0.00,,,0.00,Wunderground v.1.15,2013-04-05 00:46:00,
2013-04-04 17:50:00,70.1,56.9,30.00,West,270,5.0,-999.0,63,0.00,,,0.00,Wunderground v.1.15,2013-04-05 00:50:00,
2013-04-04 17:52:00,70.0,56.8,30.00,West,269,6.0,9.0,63,0.00,,,0.00,Wunderground v.1.15,2013-04-05 00:52:00,
2013-04-04 17:55:00,69.3,57.0,30.00,West,270,6.0,-999.0,65,0.00,,,0.00,Wunderground v.1.15,2013-04-05 00:55:00,
2013-04-04 17:56:00,69.6,56.9,30.00,SSW,211,5.0,10.0,64,0.00,,,0.00,Wunderground v.1.15,2013-04-05 00:56:00,
2013-04-04 18:00:00,69.2,56.5,30.00,West,265,6.0,9.0,64,0.00,,,0.00,Wunderground v.1.15,2013-04-05 01:00:00,
2013-04-04 18:02:00,69.0,56.7,30.00,West,272,7.0,9.0,65,0.00,,,0.00,Wunderground v.1.15,2013-04-05 01:02:00,
2013-04-04 18:04:00,68.8,57.0,30.00,West,266,6.0,9.0,66,0.00,,,0.00,Wunderground v.1.15,2013-04-05 01:04:00,
2013-04-04 18:05:00,68.5,57.1,30.00,West,270,5.0,-999.0,67,0.00,,,0.00,Wunderground v.1.15,2013-04-05 01:05:00,
2013-04-04 18:06:00,68.7,56.9,30.00,WSW,253,6.0,9.0,66,0.00,,,0.00,Wunderground v.1.15,2013-04-05 01:06:00,
2013-04-04 18:08:00,68.5,56.7,30.00,West,273,6.0,9.0,66,0.00,,,0.00,Wunderground v.1.15,2013-04-05 01:08:00,
2013-04-04 18:10:00,68.5,57.1,30.00,West,270,5.0,-999.0,67,0.00,,,0.00,Wunderground v.1.15,2013-04-05 01:10:00,
2013-04-04 18:12:00,68.4,57.0,30.00,West,269,5.0,6.0,67,0.00,,,0.00,Wunderground v.1.15,2013-04-05 01:12:00,
2013-04-04 18:15:00,68.2,57.2,30.00,West,270,3.0,-999.0,68,0.00,,,0.00,Wunderground v.1.15,2013-04-05 01:15:00,
2013-04-04 18:18:00,68.2,56.8,30.00,West,271,4.0,6.0,67,0.00,,,0.00,Wunderground v.1.15,2013-04-05 01:18:00,
2013-04-04 18:20:00,68.2,57.2,30.00,West,277,4.0,4.0,68,0.00,,,0.00,Wunderground v.1.15,2013-04-05 01:20:00,
2013-04-04 18:24:00,68.1,56.7,30.00,West,272,3.0,4.0,67,0.00,,,0.00,Wunderground v.1.15,2013-04-05 01:24:00,
2013-04-04 18:25:00,67.7,56.8,30.00,West,270,3.0,-999.0,68,0.00,,,0.00,Wunderground v.1.15,2013-04-05 01:25:00,
2013-04-04 18:26:00,67.9,56.9,30.00,WNW,284,3.0,4.0,68,0.00,,,0.00,Wunderground v.1.15,2013-04-05 01:26:00,
2013-04-04 18:28:00,67.8,56.9,30.00,WNW,282,3.0,4.0,68,0.00,,,0.00,Wunderground v.1.15,2013-04-05 01:28:00,
2013-04-04 18:30:00,67.7,56.8,30.00,WNW,291,3.0,3.0,68,0.00,,,0.00,Wunderground v.1.15,2013-04-05 01:30:00,
2013-04-04 18:32:00,67.6,56.7,30.00,West,281,3.0,5.0,68,0.00,,,0.00,Wunderground v.1.15,2013-04-05 01:32:00,
2013-04-04 18:35:00,67.1,56.6,30.00,West,270,2.0,-999.0,69,0.00,,,0.00,Wunderground v.1.15,2013-04-05 01:35:00,
2013-04-04 18:36:00,67.2,56.7,30.00,West,276,3.0,5.0,69,0.00,,,0.00,Wunderground v.1.15,2013-04-05 01:36:00,
2013-04-04 18:38:00,67.2,56.7,30.00,West,276,2.0,5.0,69,0.00,,,0.00,Wunderground v.1.15,2013-04-05 01:38:00,
2013-04-04 18:40:00,67.1,56.6,30.00,West,270,2.0,-999.0,69,0.00,,,0.00,Wunderground v.1.15,2013-04-05 01:40:00,
2013-04-04 18:42:00,66.9,56.8,30.00,West,279,3.0,4.0,70,0.00,,,0.00,Wunderground v.1.15,2013-04-05 01:42:00,
2013-04-04 18:44:00,66.5,56.4,30.00,NW,311,3.0,6.0,70,0.00,,,0.00,Wunderground v.1.15,2013-04-05 01:44:00,
2013-04-04 18:45:00,65.7,56.4,30.00,WNW,293,4.0,-999.0,72,0.00,,,0.00,Wunderground v.1.15,2013-04-05 01:45:00,
2013-04-04 18:48:00,65.9,56.6,30.00,WNW,301,4.0,6.0,72,0.00,,,0.00,Wunderground v.1.15,2013-04-05 01:48:00,
2013-04-04 18:50:00,65.7,56.4,30.00,West,281,4.0,4.0,72,0.00,,,0.00,Wunderground v.1.15,2013-04-05 01:50:00,
2013-04-04 18:55:00,65.0,56.5,30.01,WNW,293,4.0,-999.0,74,0.00,,,0.00,Wunderground v.1.15,2013-04-05 01:55:00,
2013-04-04 18:56:00,65.2,56.3,30.00,WSW,254,3.0,4.0,73,0.00,,,0.00,Wunderground v.1.15,2013-04-05 01:56:00,
2013-04-04 18:58:00,65.1,56.2,30.00,West,278,3.0,4.0,73,0.00,,,0.00,Wunderground v.1.15,2013-04-05 01:58:00,
2013-04-04 19:00:00,65.0,56.5,30.01,WNW,293,4.0,-999.0,74,0.00,,,0.00,Wunderground v.1.15,2013-04-05 02:00:00,
2013-04-04 19:02:00,64.9,56.4,30.01,WNW,284,4.0,8.0,74,0.00,,,0.00,Wunderground v.1.15,2013-04-05 02:02:00,
2013-04-04 19:04:00,64.8,56.3,30.01,West,277,4.0,8.0,74,0.00,,,0.00,Wunderground v.1.15,2013-04-05 02:04:00,
2013-04-04 19:05:00,64.2,56.1,30.01,West,270,6.0,-999.0,75,0.00,,,0.00,Wunderground v.1.15,2013-04-05 02:05:00,
2013-04-04 19:08:00,64.5,56.4,30.01,West,264,6.0,10.0,75,0.00,,,0.00,Wunderground v.1.15,2013-04-05 02:08:00,
2013-04-04 19:10:00,64.2,56.1,30.01,West,270,6.0,-999.0,75,0.00,,,0.00,Wunderground v.1.15,2013-04-05 02:10:00,
2013-04-04 19:12:00,64.0,56.3,30.01,West,265,7.0,9.0,76,0.00,,,0.00,Wunderground v.1.15,2013-04-05 02:12:00,
2013-04-04 19:14:00,63.8,56.1,30.01,West,262,8.0,9.0,76,0.00,,,0.00,Wunderground v.1.15,2013-04-05 02:14:00,
2013-04-04 19:15:00,63.5,56.2,30.01,West,270,6.0,-999.0,77,0.00,,,0.00,Wunderground v.1.15,2013-04-05 02:15:00,
2013-04-04 19:20:00,63.5,56.2,30.01,West,264,6.0,6.0,77,0.00,,,0.00,Wunderground v.1.15,2013-04-05 02:20:00,
2013-04-04 19:22:00,63.4,56.1,30.01,West,263,6.0,6.0,77,0.00,,,0.00,Wunderground v.1.15,2013-04-05 02:22:00,
2013-04-04 19:25:00,63.2,56.2,30.02,West,270,5.0,-999.0,78,0.00,,,0.00,Wunderground v.1.15,2013-04-05 02:25:00,
2013-04-04 19:28:00,63.2,56.2,30.02,West,261,5.0,6.0,78,0.00,,,0.00,Wunderground v.1.15,2013-04-05 02:28:00,
2013-04-04 19:30:00,63.2,56.2,30.02,West,278,5.0,11.0,78,0.00,,,0.00,Wunderground v.1.15,2013-04-05 02:30:00,
2013-04-04 19:32:00,63.2,56.2,30.02,West,263,5.0,11.0,78,0.00,,,0.00,Wunderground v.1.15,2013-04-05 02:32:00,
2013-04-04 19:34:00,63.1,56.1,30.02,West,280,5.0,11.0,78,0.00,,,0.00,Wunderground v.1.15,2013-04-05 02:34:00,
2013-04-04 19:35:00,62.9,56.3,30.02,West,270,7.0,-999.0,79,0.00,,,0.00,Wunderground v.1.15,2013-04-05 02:35:00,
2013-04-04 19:36:00,63.0,56.4,30.02,West,273,6.0,11.0,79,0.00,,,0.00,Wunderground v.1.15,2013-04-05 02:36:00,
2013-04-04 19:40:00,62.9,56.3,30.02,West,270,7.0,-999.0,79,0.00,,,0.00,Wunderground v.1.15,2013-04-05 02:40:00,
2013-04-04 19:42:00,62.7,56.1,30.02,West,275,6.0,7.0,79,0.00,,,0.00,Wunderground v.1.15,2013-04-05 02:42:00,
2013-04-04 19:45:00,62.3,56.0,30.02,West,270,5.0,-999.0,80,0.00,,,0.00,Wunderground v.1.15,2013-04-05 02:45:00,
2013-04-04 19:48:00,62.4,56.1,30.02,NNW,336,6.0,7.0,80,0.00,,,0.00,Wunderground v.1.15,2013-04-05 02:48:00,
2013-04-04 19:50:00,62.3,56.4,30.02,West,279,5.0,5.0,81,0.00,,,0.00,Wunderground v.1.15,2013-04-05 02:50:00,
2013-04-04 19:55:00,62.1,56.2,30.02,West,270,2.0,-999.0,81,0.00,,,0.00,Wunderground v.1.15,2013-04-05 02:55:00,
2013-04-04 19:56:00,62.2,56.3,30.02,West,277,4.0,5.0,81,0.00,,,0.00,Wunderground v.1.15,2013-04-05 02:56:00,
2013-04-04 19:58:00,62.2,56.3,30.02,West,279,3.0,5.0,81,0.00,,,0.00,Wunderground v.1.15,2013-04-05 02:58:00,
2013-04-04 20:00:00,62.1,56.2,30.02,West,279,3.0,3.0,81,0.00,,,0.00,Wunderground v.1.15,2013-04-05 03:00:00,
2013-04-04 20:05:00,61.9,56.3,30.02,West,270,4.0,-999.0,82,0.00,,,0.00,Wunderground v.1.15,2013-04-05 03:05:00,
2013-04-04 20:08:00,61.9,56.3,30.02,West,277,3.0,5.0,82,0.00,,,0.00,Wunderground v.1.15,2013-04-05 03:08:00,
2013-04-04 20:10:00,61.9,56.3,30.02,West,263,4.0,5.0,82,0.00,,,0.00,Wunderground v.1.15,2013-04-05 03:10:00,
2013-04-04 20:12:00,61.8,56.2,30.02,West,272,5.0,5.0,82,0.00,,,0.00,Wunderground v.1.15,2013-04-05 03:12:00,
2013-04-04 20:15:00,61.7,56.1,30.02,West,270,4.0,-999.0,82,0.00,,,0.00,Wunderground v.1.15,2013-04-05 03:15:00,
2013-04-04 20:18:00,61.7,56.1,30.02,West,261,4.0,5.0,82,0.00,,,0.00,Wunderground v.1.15,2013-04-05 03:18:00,
2013-04-04 20:20:00,61.7,56.1,30.02,SW,234,4.0,4.0,82,0.00,,,0.00,Wunderground v.1.15,2013-04-05 03:20:00,
2013-04-04 20:22:00,61.6,56.0,30.02,WSW,256,4.0,4.0,82,0.00,,,0.00,Wunderground v.1.15,2013-04-05 03:22:00,
2013-04-04 20:25:00,61.5,56.0,30.02,SW,225,3.0,-999.0,82,0.00,,,0.00,Wunderground v.1.15,2013-04-05 03:25:00,
2013-04-04 20:26:00,61.6,56.0,30.02,SW,219,3.0,4.0,82,0.00,,,0.00,Wunderground v.1.15,2013-04-05 03:26:00,
2013-04-04 20:30:00,61.5,56.3,30.02,SW,231,3.0,3.0,83,0.00,,,0.00,Wunderground v.1.15,2013-04-05 03:30:00,
2013-04-04 20:32:00,61.5,56.3,30.02,SW,231,3.0,3.0,83,0.00,,,0.00,Wunderground v.1.15,2013-04-05 03:32:00,
2013-04-04 20:34:00,61.4,56.2,30.03,SW,231,2.0,3.0,83,0.00,,,0.00,Wunderground v.1.15,2013-04-05 03:34:00,
2013-04-04 20:35:00,61.4,56.2,30.03,SW,225,1.0,-999.0,83,0.00,,,0.00,Wunderground v.1.15,2013-04-05 03:35:00,
2013-04-04 20:36:00,61.4,56.2,30.03,WSW,244,2.0,4.0,83,0.00,,,0.00,Wunderground v.1.15,2013-04-05 03:36:00,
2013-04-04 20:40:00,61.4,56.2,30.03,WSW,246,1.0,1.0,83,0.00,,,0.00,Wunderground v.1.15,2013-04-05 03:40:00,
2013-04-04 20:42:00,61.4,56.2,30.03,WSW,246,0.0,1.0,83,0.00,,,0.00,Wunderground v.1.15,2013-04-05 03:42:00,
2013-04-04 20:44:00,61.4,56.2,30.03,WSW,246,0.0,1.0,83,0.00,,,0.00,Wunderground v.1.15,2013-04-05 03:44:00,
2013-04-04 20:45:00,61.3,56.1,30.03,WSW,248,0.0,-999.0,83,0.00,,,0.00,Wunderground v.1.15,2013-04-05 03:45:00,
2013-04-04 20:46:00,61.3,56.1,30.03,WSW,246,0.0,1.0,83,0.00,,,0.00,Wunderground v.1.15,2013-04-05 03:46:00,
2013-04-04 20:50:00,61.3,56.1,30.03,WSW,247,0.0,0.0,83,0.00,,,0.00,Wunderground v.1.15,2013-04-05 03:50:00,
2013-04-04 20:52:00,61.3,56.1,30.03,WSW,247,0.0,0.0,83,0.00,,,0.00,Wunderground v.1.15,2013-04-05 03:52:00,
2013-04-04 20:55:00,61.1,55.9,30.03,WSW,248,0.0,-999.0,83,0.00,,,0.00,Wunderground v.1.15,2013-04-05 03:55:00,
2013-04-04 20:56:00,61.2,56.0,30.03,WSW,247,0.0,0.0,83,0.00,,,0.00,Wunderground v.1.15,2013-04-05 03:56:00,
2013-04-04 20:58:00,61.2,56.0,30.03,WSW,247,0.0,0.0,83,0.00,,,0.00,Wunderground v.1.15,2013-04-05 03:58:00,
2013-04-04 21:00:00,61.1,55.9,30.04,WSW,247,0.0,0.0,83,0.00,,,0.00,Wunderground v.1.15,2013-04-05 04:00:00,
2013-04-04 21:02:00,61.1,55.9,30.04,SSW,207,0.0,0.0,83,0.00,,,0.00,Wunderground v.1.15,2013-04-05 04:02:00,
2013-04-04 21:05:00,61.2,56.0,30.03,West,270,1.0,-999.0,83,0.00,,,0.00,Wunderground v.1.15,2013-04-05 04:05:00,
2013-04-04 21:06:00,61.1,55.9,30.03,NW,316,0.0,2.0,83,0.00,,,0.00,Wunderground v.1.15,2013-04-05 04:06:00,
2013-04-04 21:10:00,61.2,56.0,30.03,West,273,1.0,2.0,83,0.00,,,0.00,Wunderground v.1.15,2013-04-05 04:10:00,
2013-04-04 21:12:00,61.3,56.1,30.04,West,272,1.0,2.0,83,0.00,,,0.00,Wunderground v.1.15,2013-04-05 04:12:00,
2013-04-04 21:14:00,61.3,56.1,30.04,West,260,2.0,2.0,83,0.00,,,0.00,Wunderground v.1.15,2013-04-05 04:14:00,
2013-04-04 21:15:00,61.5,56.0,30.04,West,270,1.0,-999.0,82,0.00,,,0.00,Wunderground v.1.15,2013-04-05 04:15:00,
2013-04-04 21:16:00,61.4,56.2,30.04,West,260,2.0,2.0,83,0.00,,,0.00,Wunderground v.1.15,2013-04-05 04:16:00,
2013-04-04 21:18:00,61.5,56.3,30.04,West,260,2.0,2.0,83,0.00,,,0.00,Wunderground v.1.15,2013-04-05 04:18:00,
2013-04-04 21:20:00,61.5,56.0,30.04,West,270,1.0,-999.0,82,0.00,,,0.00,Wunderground v.1.15,2013-04-05 04:20:00,
2013-04-04 21:22:00,61.6,56.0,30.05,West,260,1.0,1.0,82,0.00,,,0.00,Wunderground v.1.15,2013-04-05 04:22:00,
2013-04-04 21:24:00,61.6,56.0,30.05,West,260,1.0,1.0,82,0.00,,,0.00,Wunderground v.1.15,2013-04-05 04:24:00,
2013-04-04 21:25:00,61.6,56.0,30.04,West,270,0.0,-999.0,82,0.00,,,0.00,Wunderground v.1.15,2013-04-05 04:25:00,
2013-04-04 21:28:00,61.6,56.0,30.04,West,260,0.0,1.0,82,0.00,,,0.00,Wunderground v.1.15,2013-04-05 04:28:00,
2013-04-04 21:30:00,61.6,56.0,30.04,West,270,0.0,-999.0,82,0.00,,,0.00,Wunderground v.1.15,2013-04-05 04:30:00,
2013-04-04 21:32:00,61.6,56.0,30.05,West,259,0.0,2.0,82,0.00,,,0.00,Wunderground v.1.15,2013-04-05 04:32:00,
2013-04-04 21:34:00,61.6,56.0,30.05,West,259,0.0,2.0,82,0.00,,,0.00,Wunderground v.1.15,2013-04-05 04:34:00,
2013-04-04 21:35:00,61.4,56.2,30.05,West,270,1.0,-999.0,83,0.00,,,0.00,Wunderground v.1.15,2013-04-05 04:35:00,
2013-04-04 21:36:00,61.6,56.0,30.05,West,259,0.0,2.0,82,0.00,,,0.00,Wunderground v.1.15,2013-04-05 04:36:00,
2013-04-04 21:40:00,61.4,56.2,30.05,West,270,1.0,-999.0,83,0.00,,,0.00,Wunderground v.1.15,2013-04-05 04:40:00,
2013-04-04 21:42:00,61.4,56.2,30.05,West,259,1.0,3.0,83,0.00,,,0.00,Wunderground v.1.15,2013-04-05 04:42:00,
2013-04-04 21:44:00,61.3,56.1,30.05,West,265,1.0,4.0,83,0.00,,,0.00,Wunderground v.1.15,2013-04-05 04:44:00,
2013-04-04 21:45:00,61.4,56.2,30.05,WSW,248,2.0,-999.0,83,0.00,,,0.00,Wunderground v.1.15,2013-04-05 04:45:00,
2013-04-04 21:48:00,61.4,56.2,30.05,WSW,240,2.0,4.0,83,0.00,,,0.00,Wunderground v.1.15,2013-04-05 04:48:00,
2013-04-04 21:50:00,61.4,56.2,30.05,WSW,248,2.0,-999.0,83,0.00,,,0.00,Wunderground v.1.15,2013-04-05 04:50:00,
2013-04-04 21:54:00,61.4,56.2,30.06,WSW,238,1.0,2.0,83,0.00,,,0.00,Wunderground v.1.15,2013-04-05 04:54:00,
2013-04-04 21:55:00,61.3,56.1,30.06,WSW,248,0.0,-999.0,83,0.00,,,0.00,Wunderground v.1.15,2013-04-05 04:55:00,
2013-04-04 21:56:00,61.4,56.2,30.06,WSW,238,1.0,2.0,83,0.00,,,0.00,Wunderground v.1.15,2013-04-05 04:56:00,
2013-04-04 21:58:00,61.4,56.2,30.06,WSW,238,1.0,2.0,83,0.00,,,0.00,Wunderground v.1.15,2013-04-05 04:58:00,
2013-04-04 22:00:00,61.3,56.1,30.06,WSW,238,0.0,0.0,83,0.00,,,0.00,Wunderground v.1.15,2013-04-05 05:00:00,
2013-04-04 22:04:00,61.2,56.3,30.06,WSW,238,0.0,0.0,84,0.00,,,0.00,Wunderground v.1.15,2013-04-05 05:04:00,
2013-04-04 22:05:00,60.9,56.0,30.06,West,270,0.0,-999.0,84,0.00,,,0.00,Wunderground v.1.15,2013-04-05 05:05:00,
2013-04-04 22:06:00,61.2,56.3,30.06,WSW,238,0.0,0.0,84,0.00,,,0.00,Wunderground v.1.15,2013-04-05 05:06:00,
2013-04-04 22:08:00,61.1,56.2,30.06,North,11,0.0,3.0,84,0.00,,,0.00,Wunderground v.1.15,2013-04-05 05:08:00,
2013-04-04 22:10:00,60.9,56.0,30.06,West,270,0.0,-999.0,84,0.00,,,0.00,Wunderground v.1.15,2013-04-05 05:10:00,
2013-04-04 22:14:00,60.8,55.9,30.06,WNW,286,2.0,5.0,84,0.00,,,0.00,Wunderground v.1.15,2013-04-05 05:14:00,
2013-04-04 22:15:00,60.7,55.8,30.06,West,270,3.0,-999.0,84,0.00,,,0.00,Wunderground v.1.15,2013-04-05 05:15:00,
2013-04-04 22:20:00,60.6,55.7,30.06,West,275,3.0,5.0,84,0.00,,,0.00,Wunderground v.1.15,2013-04-05 05:20:00,
2013-04-04 22:22:00,60.6,55.7,30.06,West,275,3.0,5.0,84,0.00,,,0.00,Wunderground v.1.15,2013-04-05 05:22:00,
2013-04-04 22:25:00,60.3,55.8,30.06,West,270,2.0,-999.0,85,0.00,,,0.00,Wunderground v.1.15,2013-04-05 05:25:00,
2013-04-04 22:26:00,60.5,55.6,30.06,West,280,2.0,5.0,84,0.00,,,0.00,Wunderground v.1.15,2013-04-05 05:26:00,
2013-04-04 22:28:00,60.4,55.9,30.06,West,269,2.0,5.0,85,0.00,,,0.00,Wunderground v.1.15,2013-04-05 05:28:00,
2013-04-04 22:30:00,60.3,55.8,30.06,West,266,2.0,2.0,85,0.00,,,0.00,Wunderground v.1.15,2013-04-05 05:30:00,
2013-04-04 22:35:00,60.2,55.7,30.06,West,270,1.0,-999.0,85,0.00,,,0.00,Wunderground v.1.15,2013-04-05 05:35:00,
2013-04-04 22:36:00,60.2,55.7,30.06,West,266,2.0,3.0,85,0.00,,,0.00,Wunderground v.1.15,2013-04-05 05:36:00,
2013-04-04 22:38:00,60.2,55.7,30.06,West,266,1.0,3.0,85,0.00,,,0.00,Wunderground v.1.15,2013-04-05 05:38:00,
2013-04-04 22:40:00,60.2,55.7,30.06,West,266,1.0,1.0,85,0.00,,,0.00,Wunderground v.1.15,2013-04-05 05:40:00,
2013-04-04 22:42:00,60.2,55.7,30.06,West,266,1.0,1.0,85,0.00,,,0.00,Wunderground v.1.15,2013-04-05 05:42:00,
2013-04-04 22:45:00,60.1,55.6,30.06,West,270,0.0,-999.0,85,0.00,,,0.00,Wunderground v.1.15,2013-04-05 05:45:00,
2013-04-04 22:46:00,60.2,55.7,30.06,West,266,0.0,1.0,85,0.00,,,0.00,Wunderground v.1.15,2013-04-05 05:46:00,
2013-04-04 22:48:00,60.1,55.6,30.06,West,266,0.0,1.0,85,0.00,,,0.00,Wunderground v.1.15,2013-04-05 05:48:00,
2013-04-04 22:50:00,60.1,55.6,30.05,West,266,0.0,0.0,85,0.00,,,0.00,Wunderground v.1.15,2013-04-05 05:50:00,
2013-04-04 22:54:00,60.1,55.9,30.05,West,266,0.0,0.0,86,0.00,,,0.00,Wunderground v.1.15,2013-04-05 05:54:00,
2013-04-04 22:55:00,60.0,55.8,30.06,West,270,0.0,-999.0,86,0.00,,,0.00,Wunderground v.1.15,2013-04-05 05:55:00,
2013-04-04 22:56:00,60.1,55.9,30.06,West,266,0.0,0.0,86,0.00,,,0.00,Wunderground v.1.15,2013-04-05 05:56:00,
2013-04-04 23:00:00,60.0,55.8,30.06,West,266,0.0,0.0,86,0.00,,,0.00,Wunderground v.1.15,2013-04-05 06:00:00,
2013-04-04 23:02:00,60.0,55.8,30.06,West,266,0.0,0.0,86,0.00,,,0.00,Wunderground v.1.15,2013-04-05 06:02:00,
2013-04-04 23:05:00,60.0,55.8,30.06,West,270,0.0,-999.0,86,0.00,,,0.00,Wunderground v.1.15,2013-04-05 06:05:00,
2013-04-04 23:08:00,60.0,55.8,30.06,West,266,0.0,0.0,86,0.00,,,0.00,Wunderground v.1.15,2013-04-05 06:08:00,
2013-04-04 23:10:00,60.0,55.8,30.06,West,266,0.0,0.0,86,0.00,,,0.00,Wunderground v.1.15,2013-04-05 06:10:00,
2013-04-04 23:15:00,60.0,55.8,30.06,N/A,-737280,0.0,-999.0,86,0.00,,,0.00,Wunderground v.1.15,2013-04-05 06:15:00,
2013-04-04 23:16:00,60.0,55.8,30.06,West,266,0.0,0.0,86,0.00,,,0.00,Wunderground v.1.15,2013-04-05 06:16:00,
2013-04-04 23:20:00,60.0,55.8,30.06,West,266,0.0,0.0,86,0.00,,,0.00,Wunderground v.1.15,2013-04-05 06:20:00,
2013-04-04 23:22:00,60.1,55.9,30.06,West,266,0.0,0.0,86,0.00,,,0.00,Wunderground v.1.15,2013-04-05 06:22:00,
2013-04-04 23:25:00,60.0,55.8,30.06,West,270,0.0,-999.0,86,0.00,,,0.00,Wunderground v.1.15,2013-04-05 06:25:00,
2013-04-04 23:28:00,60.0,55.8,30.06,West,266,0.0,0.0,86,0.00,,,0.00,Wunderground v.1.15,2013-04-05 06:28:00,
2013-04-04 23:30:00,60.0,55.8,30.06,West,270,0.0,-999.0,86,0.00,,,0.00,Wunderground v.1.15,2013-04-05 06:30:00,
2013-04-04 23:32:00,60.0,55.8,30.06,West,266,0.0,0.0,86,0.00,,,0.00,Wunderground v.1.15,2013-04-05 06:32:00,
2013-04-04 23:34:00,60.0,55.8,30.06,West,266,0.0,0.0,86,0.00,,,0.00,Wunderground v.1.15,2013-04-05 06:34:00,
2013-04-04 23:35:00,60.0,55.8,30.06,West,270,0.0,-999.0,86,0.00,,,0.00,Wunderground v.1.15,2013-04-05 06:35:00,
2013-04-04 23:36:00,60.0,55.8,30.06,West,266,0.0,0.0,86,0.00,,,0.00,Wunderground v.1.15,2013-04-05 06:36:00,
2013-04-04 23:38:00,60.0,55.8,30.06,West,266,0.0,0.0,86,0.00,,,0.00,Wunderground v.1.15,2013-04-05 06:38:00,
2013-04-04 23:40:00,60.0,55.8,30.06,West,266,0.0,1.0,86,0.00,,,0.00,Wunderground v.1.15,2013-04-05 06:40:00,
2013-04-04 23:44:00,60.0,55.8,30.06,West,266,0.0,2.0,86,0.00,,,0.00,Wunderground v.1.15,2013-04-05 06:44:00,
2013-04-04 23:45:00,60.0,55.8,30.06,West,270,1.0,-999.0,86,0.00,,,0.00,Wunderground v.1.15,2013-04-05 06:45:00,
2013-04-04 23:48:00,60.0,55.8,30.06,West,266,1.0,2.0,86,0.00,,,0.00,Wunderground v.1.15,2013-04-05 06:48:00,
2013-04-04 23:50:00,60.0,55.8,30.06,West,266,1.0,2.0,86,0.00,,,0.00,Wunderground v.1.15,2013-04-05 06:50:00,
2013-04-04 23:52:00,60.0,55.8,30.07,West,266,1.0,2.0,86,0.00,,,0.00,Wunderground v.1.15,2013-04-05 06:52:00,
2013-04-04 23:55:00,60.1,55.9,30.07,West,270,0.0,-999.0,86,0.00,,,0.00,Wunderground v.1.15,2013-04-05 06:55:00,
2013-04-04 23:56:00,60.1,55.9,30.07,West,266,1.0,2.0,86,0.00,,,0.00,Wunderground v.1.15,2013-04-05 06:56:00,
2013-04-04 23:58:00,60.1,55.9,30.07,West,266,1.0,2.0,86,0.00,,,0.00,Wunderground v.1.15,2013-04-05 06:58:00,